GEFSGL_500_meanwind_000.txt.gz
Wind_Speed
32 31 33 34 34 35 37 38 39 41 41 42 42 43 46 49 51 54 57 61 65 68 72 76 79 78 78 80 80 83 88 94 99 99 105 110 116 119 119 115 109 105 101
33 33 34 34 34 35 37 37 39 41 41 42 44 46 49 52 55 58 61 64 67 71 76 78 77 78 79 80 83 89 95 102 108 110 112 115 110 101 94 89 82 78 76
35 35 35 35 34 35 36 38 39 40 41 44 46 49 52 55 57 59 61 66 72 76 76 76 77 78 80 85 89 96 103 108 113 117 112 102 90 81 71 61 56 52 49
36 35 34 33 33 34 36 37 39 41 44 47 50 52 54 54 56 61 66 72 75 74 74 76 78 81 86 91 96 104 109 111 111 105 94 83 70 57 50 47 42 39 36
33 32 31 31 32 34 35 37 40 43 46 50 52 52 53 56 61 66 71 73 72 73 75 78 82 87 93 97 104 108 110 105 97 87 76 63 50 46 45 41 35 30 30
30 29 29 30 31 32 35 39 42 46 48 50 51 54 57 61 66 70 71 70 73 74 78 83 88 94 99 103 108 108 102 92 82 71 57 46 42 43 37 33 30 27 26
25 25 26 28 30 33 37 41 45 47 49 52 55 57 60 64 68 68 69 71 74 79 84 88 94 100 104 107 105 97 85 77 68 55 43 44 42 36 33 28 26 25 27
21 23 26 29 33 36 40 43 46 49 52 54 56 59 63 65 65 67 70 74 79 85 89 95 100 103 107 103 94 82 71 60 50 45 46 42 34 33 31 29 25 22 25
21 25 28 32 35 38 41 44 48 51 53 55 59 61 62 63 66 70 74 80 85 89 95 101 103 105 100 89 78 67 55 44 39 42 41 35 34 34 32 28 25 23 23
24 27 30 33 36 39 43 46 49 51 54 58 59 59 61 64 69 74 80 86 90 95 99 101 102 95 82 72 62 51 39 33 35 34 32 32 33 33 32 32 30 28 27
26 29 32 35 38 41 44 46 49 53 55 56 57 60 64 69 74 80 85 91 96 99 100 97 88 73 65 58 49 38 31 34 30 28 30 30 30 31 31 31 32 32 29
28 31 34 37 39 41 44 47 51 53 53 55 57 62 68 74 79 84 89 94 99 100 93 80 67 61 55 46 38 31 33 30 25 27 28 28 29 29 29 30 30 31 31
31 34 35 37 39 42 46 49 50 51 53 56 61 66 72 78 84 89 94 99 99 90 74 63 59 52 44 36 31 32 29 25 25 27 29 29 30 29 26 26 27 28 29
33 35 36 38 41 44 46 48 49 51 55 59 65 71 77 82 88 93 97 98 89 71 61 57 49 41 34 32 32 30 29 28 28 29 28 29 29 27 25 22 22 22 23
33 35 38 40 43 45 46 47 50 54 58 64 70 76 82 87 92 97 98 88 71 59 55 45 36 32 32 33 33 32 31 31 31 31 30 29 29 27 24 21 20 20 19
34 37 39 41 43 44 46 49 53 59 65 71 76 82 86 91 95 95 84 68 60 55 45 34 30 31 31 30 29 30 31 32 33 32 31 29 27 25 23 22 19 17 17
35 38 40 41 42 45 48 52 58 64 70 76 80 85 89 93 93 83 68 61 55 45 34 30 31 30 29 28 29 30 31 31 31 30 29 27 25 24 21 19 18 17 15
37 38 39 41 43 47 52 57 62 67 72 77 82 87 91 91 82 68 62 55 43 34 29 29 28 28 28 29 29 29 29 30 30 29 27 25 22 21 19 17 16 14 12
36 37 39 42 46 52 57 62 67 71 75 80 84 89 88 77 66 61 53 40 30 27 27 27 26 27 28 28 27 27 29 30 29 26 23 21 20 18 17 15 13 11 10
36 38 41 46 51 57 61 65 69 73 78 83 88 86 75 63 56 48 37 27 25 26 26 26 26 26 25 25 25 27 29 30 27 23 21 21 20 18 16 15 14 13 10
37 40 45 50 55 60 63 67 71 76 81 87 85 75 62 54 44 33 23 21 24 25 26 26 24 23 22 22 23 26 28 27 25 22 21 20 20 20 19 17 15 14 12
40 45 50 54 58 62 66 70 74 79 85 84 73 61 53 42 30 20 18 21 22 24 25 24 21 19 18 18 20 23 27 27 24 22 22 22 23 23 22 20 16 13 11
45 49 53 57 61 65 69 72 78 84 83 73 60 50 40 29 18 14 16 19 20 21 21 20 19 17 15 15 18 23 26 24 21 20 22 23 24 26 26 22 16 12 11
48 52 56 61 65 68 71 76 83 83 74 60 49 38 28 17 10 11 14 16 17 18 20 21 21 20 19 19 21 24 24 23 22 22 21 22 24 26 27 26 18 13 11
51 56 61 64 67 70 76 82 83 75 61 48 38 28 17 7 4 8 12 15 17 19 21 21 21 21 22 23 24 26 28 28 27 24 23 24 26 28 28 27 21 16 12
56 60 64 66 70 76 82 83 76 63 50 41 30 18 7 1 3 7 11 15 18 20 21 21 21 21 23 25 25 27 28 29 29 28 28 27 28 29 31 29 25 20 16

GEFSGL_500_meanwind_006.txt.gz
Wind_Speed
44 44 43 42 41 40 39 37 37 38 40 41 41 42 44 46 48 50 51 53 55 58 60 60 62 64 68 71 73 74 77 79 79 80 85 90 97 103 109 114 115 110 103
43 43 42 41 41 40 39 37 36 37 39 41 42 44 45 46 48 50 53 55 58 59 61 63 65 68 70 72 74 77 79 82 86 88 91 98 105 110 112 109 100 88 78
40 40 40 40 39 39 38 37 36 37 39 42 43 45 46 47 49 52 55 57 59 62 64 66 68 70 72 75 77 80 84 88 93 98 101 105 107 105 98 86 74 64 55
37 37 37 37 37 37 37 38 38 38 39 41 44 45 46 49 51 54 57 59 62 64 67 69 71 73 75 77 81 85 90 95 101 106 108 105 97 84 73 62 51 45 43
34 35 35 35 35 36 37 38 38 38 39 42 44 45 48 51 53 56 59 62 64 66 69 71 73 74 77 82 87 92 98 103 107 107 101 90 74 61 51 43 38 36 36
32 32 32 33 35 36 36 37 37 37 40 42 44 47 50 52 56 59 61 63 66 69 71 72 74 78 82 88 93 99 104 105 103 94 82 67 54 45 39 35 33 31 31
28 29 31 34 35 34 33 34 35 38 40 43 46 49 51 54 57 60 63 66 68 70 71 74 79 83 88 93 98 103 102 95 85 75 62 50 42 38 34 29 29 29 31
28 29 30 30 30 30 31 33 35 38 41 44 47 50 53 55 59 62 65 66 68 70 75 79 84 89 94 99 102 99 88 76 67 58 48 41 38 35 31 28 28 27 28
26 26 27 27 27 29 31 34 37 40 42 45 48 50 54 57 60 63 65 66 70 74 79 84 88 93 99 101 97 86 71 60 52 45 40 39 37 33 32 31 31 30 28
22 22 23 25 27 30 32 35 38 41 44 46 49 52 55 58 61 62 65 69 73 77 82 87 94 98 100 93 81 67 54 46 42 40 39 38 37 36 37 37 35 33 30
19 21 23 25 28 32 35 37 40 42 44 47 51 54 56 58 60 64 68 73 76 81 86 92 96 97 89 76 63 52 44 40 38 37 36 36 37 37 37 38 37 35 32
19 22 25 28 32 34 37 38 39 42 45 49 52 54 56 59 63 67 72 76 80 85 91 94 93 84 70 58 47 41 38 37 36 35 35 35 36 36 36 37 37 36 33
21 24 27 30 33 35 36 37 40 44 47 49 51 54 57 62 66 71 75 79 84 89 92 89 78 65 52 43 38 37 36 35 34 33 34 34 35 35 35 34 34 33 32
23 26 29 31 32 34 36 39 42 45 47 49 51 55 60 64 68 73 77 82 87 89 84 73 60 48 41 38 36 34 33 33 33 32 32 33 33 33 32 31 29 28 27
26 28 30 31 32 35 38 40 43 45 47 50 54 58 62 66 71 76 81 86 88 83 71 56 45 40 39 37 34 33 31 31 32 32 32 31 30 29 29 28 26 25 24
27 28 29 32 34 37 39 41 42 45 49 52 56 61 66 70 75 80 86 88 82 68 53 42 38 37 35 32 30 29 29 30 31 32 30 29 27 26 26 25 24 22 21
27 29 31 34 36 38 39 41 44 49 53 56 61 66 70 75 80 84 86 79 65 50 39 35 34 33 30 27 26 26 28 31 31 30 28 27 27 26 25 24 22 21 20
29 31 33 35 36 37 39 43 47 51 55 61 65 70 74 79 83 83 75 61 47 36 31 30 29 27 24 24 24 27 29 31 30 29 27 26 26 26 26 25 23 20 18
30 32 34 35 36 39 43 47 50 54 58 63 67 73 78 82 81 73 58 43 32 27 24 23 22 21 21 23 25 28 29 29 28 27 27 28 28 28 27 25 22 19 16
32 33 34 35 38 42 46 50 53 57 61 66 71 76 80 78 69 56 42 30 23 19 18 18 19 20 21 24 26 27 27 27 27 27 28 28 29 28 26 24 20 16 13
32 33 34 38 42 45 49 52 56 60 65 71 76 79 77 68 55 41 29 20 15 13 14 15 17 19 21 24 26 27 28 28 28 28 28 29 29 27 25 22 18 14 11
31 34 37 41 45 48 52 56 60 65 70 75 79 77 68 55 41 28 17 11 9 10 11 13 16 18 21 24 26 28 29 29 29 29 29 29 29 27 24 21 17 13 10
34 37 41 44 48 52 55 60 65 70 75 80 77 69 55 41 28 15 8 5 6 7 9 12 15 18 21 24 26 28 29 29 30 30 30 29 28 27 24 21 16 13 10
37 40 44 47 51 56 60 65 71 76 80 78 70 56 41 27 13 4 0 2 5 7 9 12 15 18 22 25 28 30 30 30 30 31 32 31 31 29 26 22 17 13 11
40 43 47 51 56 60 66 72 77 81 79 71 58 41 25 11 3 5 5 4 6 8 10 12 15 18 21 25 28 29 30 30 30 31 33 34 34 32 29 24 18 14 12
42 46 51 56 60 66 72 78 81 79 71 58 42 25 10 4 9 9 7 5 6 8 10 12 14 18 21 23 26 28 28 29 30 31 33 34 35 34 31 27 22 17 14

GEFSGL_500_meanwind_012.txt.gz
Wind_Speed
47 47 46 45 45 43 41 40 40 42 42 41 39 39 40 42 43 44 45 47 49 51 52 53 54 55 57 60 61 63 64 67 68 68 71 74 77 80 84 88 93 98 101
45 45 45 46 44 42 40 39 40 41 41 39 38 39 41 42 43 45 46 49 50 52 53 54 56 58 60 61 62 64 66 68 71 72 73 77 82 87 92 96 100 101 99
42 43 44 44 42 40 38 38 39 39 39 38 38 39 40 42 44 46 48 50 51 52 54 56 58 60 61 63 64 66 68 71 75 77 79 84 90 96 99 99 96 89 81
40 42 42 41 39 37 36 36 36 36 36 36 37 39 41 43 45 47 49 50 52 54 57 58 60 61 62 64 66 69 72 76 80 83 87 92 97 99 97 89 78 68 60
38 38 37 35 34 33 32 33 33 33 34 35 37 40 43 45 45 47 49 51 54 56 58 59 61 62 64 66 69 73 77 81 86 90 95 98 97 90 81 71 60 52 48
33 32 30 29 28 28 29 30 31 32 34 36 39 42 44 44 44 47 51 54 56 57 58 59 61 63 66 69 73 78 83 88 93 97 98 95 85 74 63 55 50 46 43
26 25 25 25 25 27 29 30 31 33 36 39 41 42 41 43 47 50 53 54 55 57 58 59 62 65 69 73 77 82 89 95 98 97 91 80 68 59 54 50 48 46 43
22 22 24 26 28 28 28 30 32 35 37 39 40 40 42 45 49 52 53 54 55 57 58 61 64 68 73 77 82 87 92 94 91 83 74 64 57 53 51 49 47 45 42
20 22 25 26 26 28 31 33 34 36 37 37 38 41 45 47 49 51 52 53 55 57 60 64 68 72 77 82 87 90 91 85 76 66 58 54 52 51 50 48 47 45 42
22 23 24 26 28 29 30 31 32 33 35 37 41 44 46 47 48 50 51 53 55 58 63 67 72 77 82 87 89 88 81 69 59 53 51 50 49 48 48 47 46 45 43
24 24 24 24 24 25 27 28 31 34 36 39 42 43 45 47 48 50 51 54 57 61 66 71 76 81 85 87 85 76 65 54 48 46 45 45 45 46 45 45 45 45 43
18 18 18 19 21 23 26 29 32 35 38 39 41 43 45 46 48 50 53 57 60 64 69 74 79 83 85 81 72 60 51 45 42 41 42 42 43 44 44 43 43 42 42
13 15 17 19 22 25 28 31 34 36 38 40 42 43 45 47 49 53 56 60 64 69 73 78 81 82 78 68 56 46 40 38 38 39 40 41 43 43 42 41 41 40 40
13 16 18 21 24 27 30 32 34 36 38 40 42 44 46 49 52 56 59 63 68 72 76 79 80 75 65 51 42 36 35 35 37 38 40 41 42 42 42 41 39 38 36
14 17 20 23 26 29 31 33 36 38 39 41 42 45 48 52 55 59 62 67 71 74 77 78 72 61 48 38 33 31 33 35 37 39 41 41 41 41 41 41 39 37 35
17 20 23 26 28 30 33 35 37 38 40 42 44 48 51 55 59 63 67 71 74 77 77 70 59 45 34 28 28 30 32 35 38 39 40 41 40 40 39 38 37 35 32
20 23 25 27 30 32 34 35 37 39 41 44 48 52 55 60 63 67 71 75 77 76 69 57 43 31 25 24 25 28 32 35 37 38 39 39 39 39 38 36 34 31 28
23 25 27 29 31 33 34 36 38 41 45 49 53 56 61 65 69 72 75 77 76 68 55 41 29 21 19 21 24 28 31 34 36 37 38 38 39 38 36 34 31 28 24
25 27 29 30 32 33 35 38 42 46 50 54 58 62 66 71 75 77 78 75 67 53 39 26 18 15 17 20 23 27 30 33 35 37 38 38 38 37 34 31 28 25 23
27 28 30 31 33 35 38 42 46 50 55 59 63 67 71 76 79 79 75 65 49 34 22 14 11 13 16 19 23 26 29 32 34 36 38 38 37 36 33 29 26 23 22
28 29 30 32 35 38 42 47 51 55 60 64 69 73 77 80 79 73 61 44 28 16 9 7 8 12 15 19 23 26 29 32 34 36 37 37 36 34 32 29 26 23 22
28 29 31 34 38 42 47 51 56 61 65 71 76 81 82 79 69 54 37 21 10 4 3 5 9 13 16 20 23 25 28 31 33 34 35 35 34 33 31 27 25 23 22
28 30 33 37 41 46 51 56 61 67 72 78 82 81 74 62 46 29 14 5 1 2 4 7 10 14 17 20 23 24 26 28 30 32 32 32 31 30 28 27 26 25 24
29 32 35 40 45 50 55 61 67 72 78 81 77 68 54 37 21 8 2 4 4 4 6 9 12 15 18 21 23 24 25 27 28 29 30 30 30 30 29 29 27 26 25
30 34 38 44 49 54 60 66 71 76 77 72 61 46 30 15 5 5 7 7 6 6 8 11 14 16 18 21 22 24 25 26 27 28 29 29 29 30 29 29 28 26 25
32 36 41 46 52 58 63 68 72 72 67 55 40 25 12 7 9 10 8 6 6 8 11 13 15 16 18 20 22 23 23 24 25 26 27 28 28 28 28 28 28 27 26

GEFSGL_500_meanwind_018.txt.gz
Wind_Speed
61 64 65 64 63 60 57 54 52 50 49 46 44 43 42 41 41 41 42 43 45 45 45 46 49 52 54 56 58 58 59 61 62 63 64 65 65 66 67 69 72 75 79
56 61 63 62 62 59 56 54 52 50 47 45 42 41 40 40 40 41 43 44 45 45 46 48 52 55 57 58 59 60 61 63 64 64 64 65 67 69 72 74 78 83 87
48 54 57 59 59 57 54 52 50 47 45 42 41 39 39 39 40 42 43 44 44 45 48 51 55 58 59 59 60 62 63 64 65 65 66 68 70 74 77 80 85 90 94
41 45 50 53 54 53 50 48 46 44 41 40 39 38 37 38 40 41 42 42 44 47 51 55 58 59 60 61 62 63 64 65 66 67 68 71 74 78 82 85 88 91 91
33 37 43 46 48 47 45 43 41 40 38 37 36 36 37 38 40 40 41 43 47 52 55 57 59 60 61 62 63 64 65 66 68 69 72 75 78 82 86 88 88 84 79
26 31 35 39 40 39 38 37 36 36 35 34 35 36 37 37 38 40 43 47 51 54 56 58 59 61 62 63 64 65 67 69 71 73 75 78 82 85 86 85 81 74 66
24 26 29 32 32 32 32 32 32 32 32 33 35 36 38 39 43 45 47 49 52 54 56 58 60 61 62 63 65 66 69 72 74 76 79 82 84 84 81 76 70 64 59
22 24 26 27 27 28 28 28 28 29 32 35 36 38 40 44 46 46 47 49 52 54 57 58 60 61 63 64 65 67 70 73 76 79 82 83 82 78 72 66 61 57 55
22 22 22 23 23 23 24 25 27 31 35 37 40 40 40 41 43 44 47 49 52 55 57 59 61 63 64 66 68 70 73 76 79 82 82 79 74 68 62 58 55 55 53
18 18 18 18 19 20 23 27 29 32 33 33 33 34 37 39 42 45 48 51 54 56 59 61 63 64 66 69 71 73 75 77 79 78 75 69 62 57 55 54 55 55 54
14 14 16 17 19 20 22 23 24 25 27 29 31 34 37 40 44 47 50 52 55 57 60 62 64 67 69 72 74 76 77 77 75 69 62 56 52 51 52 54 55 55 54
9 9 10 10 11 13 15 16 19 22 25 28 32 36 39 43 46 49 52 54 56 59 62 65 68 70 73 75 77 78 77 72 64 56 50 47 46 48 50 52 52 53 52
3 4 4 5 7 9 12 15 19 23 27 31 35 38 42 45 48 50 53 57 60 63 66 69 72 75 77 79 79 75 68 59 51 45 42 41 43 46 47 48 49 49 48
3 2 3 5 8 11 15 19 23 27 30 34 37 40 43 46 49 53 57 61 65 69 72 76 78 80 80 78 72 63 53 45 40 37 36 38 40 43 45 46 45 44 40
4 6 8 11 14 17 20 23 27 30 32 35 38 41 44 48 53 57 62 67 71 75 78 81 82 80 75 66 55 45 38 34 32 31 32 35 38 41 42 42 40 38 34
10 12 14 17 19 21 24 26 29 31 33 36 39 43 47 53 58 64 69 74 78 81 82 81 76 69 58 46 37 32 29 27 27 28 31 34 37 38 37 36 35 33 29
15 16 18 20 21 24 26 28 30 32 34 38 42 47 53 59 64 70 75 80 82 81 76 68 58 46 35 27 24 22 21 22 24 28 31 33 34 34 32 31 30 29 27
18 19 20 22 24 26 27 28 30 33 37 41 47 53 59 65 70 75 78 78 74 66 56 44 33 23 18 15 14 16 18 21 24 27 29 31 31 30 29 28 28 27 25
20 21 23 24 25 26 27 29 32 36 41 46 52 58 64 69 72 73 71 65 55 43 31 21 14 10 9 10 13 16 19 21 23 26 28 29 29 28 27 27 27 27 26
22 23 24 25 26 27 28 31 34 39 44 50 56 61 65 67 67 64 56 45 32 21 14 11 9 9 10 12 15 17 20 21 24 26 27 28 28 27 27 27 27 27 28
23 24 25 25 26 27 29 33 37 42 48 53 58 60 62 61 57 48 37 26 18 14 13 12 11 12 13 15 17 19 21 22 24 25 27 28 28 28 28 28 28 29 29
24 25 25 26 27 28 31 35 40 45 50 54 57 58 56 51 42 31 23 17 14 13 13 14 14 15 17 18 20 21 23 23 24 25 26 27 27 28 28 28 28 28 28
25 25 25 26 28 30 33 37 42 47 51 54 55 53 48 40 30 23 18 14 13 14 15 16 17 19 19 20 22 23 23 24 24 24 25 26 27 27 27 27 27 28 29
25 26 26 27 29 32 35 39 43 48 51 52 50 46 39 31 24 19 16 14 15 16 18 19 21 22 22 23 23 23 23 23 24 24 24 25 26 26 27 28 28 28 29
26 27 27 29 31 33 37 41 45 48 50 49 45 39 32 26 22 19 17 17 18 19 21 22 23 24 24 24 23 23 23 23 23 23 24 25 26 26 27 28 28 28 28
27 28 29 30 32 35 38 42 46 48 49 46 40 34 28 24 21 20 19 20 21 22 23 24 25 25 25 24 23 23 23 22 23 23 24 24 25 26 27 27 28 27 27

GEFSGL_500_meanwind_024.txt.gz
Wind_Speed
64 66 68 69 71 71 71 70 69 67 65 63 61 58 56 55 55 54 52 51 51 50 50 50 50 50 51 51 52 53 55 55 56 58 61 64 66 67 68 68 69 69 69
58 59 61 64 66 68 69 69 69 68 67 64 62 59 57 56 55 54 53 52 51 51 51 51 51 51 52 54 56 56 57 58 60 63 65 68 69 70 70 70 71 71 72
48 50 52 55 58 61 64 65 67 67 66 65 62 60 58 56 55 54 53 52 51 50 50 51 52 53 55 57 58 61 62 63 65 67 69 70 71 72 72 72 72 73 74
39 40 42 44 47 51 54 56 58 60 61 61 60 58 56 54 54 52 51 50 50 49 50 51 53 55 57 59 61 65 67 68 69 70 70 71 72 73 73 73 73 75 76
31 32 33 36 37 40 43 45 47 50 53 54 54 53 53 51 50 49 49 48 48 48 50 52 55 57 59 62 66 68 69 70 71 71 72 72 73 74 75 76 76 77 78
21 22 24 26 29 30 32 34 36 38 41 44 46 47 47 47 46 46 46 46 46 48 51 54 57 59 62 64 67 69 70 70 71 72 72 73 74 76 77 78 79 79 78
11 10 11 15 18 20 22 24 25 27 31 35 38 39 40 41 42 41 42 43 45 49 53 56 59 60 62 65 67 68 69 71 72 74 75 76 78 79 80 80 80 78 75
8 3 2 7 11 13 15 16 19 22 24 27 30 33 34 35 36 38 40 42 46 50 53 56 57 59 61 64 65 67 69 72 74 77 79 81 82 83 82 79 75 71 68
11 9 7 6 8 10 12 13 15 18 20 22 24 27 29 31 34 36 39 42 45 47 48 51 54 57 60 63 65 68 71 75 78 81 83 84 83 81 76 71 66 63 58
14 13 11 10 9 8 7 8 10 13 15 18 21 23 26 28 31 32 35 38 41 44 48 51 54 57 61 65 69 73 76 79 81 83 83 81 76 70 65 61 56 53 50
13 13 11 10 9 7 5 5 7 10 13 15 18 21 23 25 27 29 32 36 39 43 48 52 56 61 66 71 75 78 80 80 79 76 73 67 62 57 53 50 47 46 44
13 12 11 9 7 5 2 1 3 5 8 11 14 16 19 22 26 29 32 36 40 45 50 56 62 67 71 74 76 77 75 72 68 62 56 51 47 44 41 40 40 40 40
13 12 11 10 9 7 5 4 4 5 8 11 14 17 20 23 26 30 34 39 44 50 56 62 67 70 72 72 71 67 62 55 48 42 38 35 33 33 33 34 35 36 37
12 12 11 10 9 8 8 8 9 11 12 14 16 19 21 24 28 33 38 44 50 56 62 66 68 68 65 62 57 50 43 36 31 28 26 26 27 28 30 31 32 32 33
11 11 11 11 11 11 11 12 13 14 15 16 18 21 24 28 33 38 44 50 55 60 63 64 62 58 53 47 40 33 28 25 23 22 23 24 26 28 29 30 31 31 31
12 13 13 13 13 13 14 15 15 16 17 19 21 24 28 32 38 43 49 53 58 61 60 57 52 47 40 34 30 27 25 24 24 24 25 25 26 27 29 30 30 31 31
14 15 15 15 15 16 17 17 18 19 20 22 24 28 32 36 42 47 52 55 58 57 54 49 43 37 32 29 28 28 27 26 26 26 26 26 27 28 29 30 31 31 32
16 16 17 17 18 18 19 19 20 21 22 25 28 32 36 40 45 49 54 56 55 52 47 41 36 31 29 29 29 28 28 28 27 27 28 28 28 28 29 30 31 32 32
17 18 19 19 20 20 21 21 22 24 26 28 32 36 39 44 48 52 54 54 52 47 41 36 32 30 29 29 30 30 29 29 29 29 29 29 29 29 30 31 31 32 33
19 20 21 21 22 22 23 24 25 27 29 32 35 38 42 46 50 52 53 51 47 42 36 32 31 30 30 31 31 31 31 30 30 30 30 30 30 30 31 32 33 33 33
20 22 23 23 24 25 26 27 28 30 32 34 37 40 44 47 50 51 50 47 42 37 33 31 31 32 32 32 32 32 32 31 31 30 30 30 31 31 32 33 34 34 34
22 23 24 25 26 27 28 29 30 32 34 36 39 42 45 48 50 49 47 43 37 33 31 31 32 32 33 33 33 33 33 33 32 31 31 31 31 32 32 33 34 35 34
23 24 26 27 28 29 30 31 32 33 35 37 40 42 46 48 49 47 44 40 35 31 31 31 32 33 33 34 35 35 34 33 32 31 31 31 31 31 32 32 33 33 33
25 26 27 28 30 31 31 32 33 34 35 38 40 43 46 48 48 46 42 37 33 31 31 31 32 34 35 36 36 36 35 34 32 31 30 30 30 30 31 31 32 32 32
25 27 28 30 31 32 32 33 34 35 36 39 41 44 47 49 48 45 40 36 33 31 32 32 33 35 36 37 37 37 35 34 32 30 29 29 29 30 30 30 31 31 31
26 27 29 30 32 32 33 34 34 35 37 40 43 46 48 49 47 44 39 35 33 33 33 34 35 36 37 37 38 37 35 33 31 30 29 29 28 28 29 29 29 29 30

GEFSGL_500_meanwind_030.txt.gz
Wind_Speed
42 44 48 53 56 59 61 63 65 67 68 69 68 67 66 66 65 64 63 63 63 62 61 59 59 58 58 58 57 57 57 57 59 60 61 62 64 66 67 67 68 68 69
39 43 47 50 52 54 57 59 60 61 62 63 63 63 63 62 62 62 62 62 61 61 60 60 59 59 58 58 59 59 59 60 62 63 64 65 67 69 69 70 71 71 71
39 42 44 45 47 49 50 52 53 53 54 54 55 56 56 56 57 57 58 59 59 59 60 59 59 59 60 61 60 60 61 63 64 65 66 67 69 71 72 72 72 72 73
35 37 38 39 41 43 42 41 41 42 43 44 45 46 47 48 49 50 51 53 54 56 56 57 57 58 59 59 60 60 61 63 64 65 67 69 70 71 72 72 72 73 74
30 31 32 34 34 34 32 30 30 31 33 34 35 36 37 39 40 40 42 45 47 49 50 51 53 55 57 58 59 59 61 63 65 66 68 69 69 70 71 72 74 76 78
26 27 27 27 28 27 24 22 21 22 23 25 26 27 28 30 30 31 33 36 39 41 44 46 49 51 53 55 57 58 60 62 63 64 66 67 68 71 73 76 78 79 81
22 23 23 22 22 21 18 16 14 14 15 18 19 20 22 23 24 25 27 30 33 36 38 41 44 46 49 51 54 55 57 58 60 62 64 67 70 73 76 78 79 80 80
18 19 20 19 18 17 16 13 10 8 7 9 11 14 15 16 18 20 21 23 25 28 32 36 40 43 45 46 48 50 53 55 59 62 66 69 72 74 76 76 75 73 71
16 17 18 17 16 15 14 13 10 6 3 2 5 7 8 11 14 16 17 20 23 26 29 31 33 35 38 40 44 48 52 57 61 65 68 70 70 70 69 66 64 61 58
14 14 16 15 14 14 13 12 10 8 5 4 2 3 5 7 9 11 13 15 18 21 24 27 30 33 37 41 46 51 56 60 63 65 65 64 61 58 56 52 50 47 44
13 14 14 14 14 14 14 13 11 10 8 6 5 3 3 5 7 9 12 14 17 20 23 27 31 35 40 45 50 54 57 60 61 59 56 53 50 48 45 43 40 38 37
12 13 13 14 14 14 14 13 12 11 9 7 6 5 5 6 8 9 12 14 18 21 26 30 35 40 44 48 52 55 56 56 54 51 48 45 43 41 39 37 36 35 35
11 12 13 13 13 13 12 11 11 10 9 9 8 8 8 9 11 13 15 19 22 26 31 35 39 43 47 50 52 53 53 51 48 45 43 41 40 38 37 36 35 34 34
11 12 12 12 12 12 12 12 11 11 11 11 11 11 11 13 15 17 20 23 27 31 35 39 42 45 48 50 51 50 48 45 43 41 40 39 38 37 36 35 35 34 35
12 12 12 12 12 12 13 13 13 13 13 13 14 14 15 17 20 22 26 29 32 35 38 41 44 46 48 49 48 46 42 40 39 39 38 38 37 37 36 35 35 34 34
12 13 13 13 13 14 14 15 15 15 16 16 17 18 20 22 24 27 30 32 35 37 40 42 45 47 48 47 44 41 39 38 38 37 37 37 37 36 36 35 35 34 34
14 14 14 14 15 16 16 17 17 18 19 20 21 22 24 26 28 31 33 35 37 39 42 44 46 47 47 45 41 39 37 37 36 36 36 37 36 36 36 35 35 35 34
16 16 16 16 17 17 18 19 19 20 21 23 24 25 27 29 31 33 35 37 39 41 43 45 46 47 45 42 39 37 36 36 36 37 37 37 37 36 36 35 35 35 34
17 17 18 18 19 19 20 21 22 23 24 25 26 28 29 31 33 35 36 38 41 43 45 46 47 46 44 41 38 37 36 36 37 38 38 38 38 37 36 35 34 34 34
19 19 20 20 21 21 22 23 24 25 26 28 29 30 32 33 35 36 38 40 42 44 45 47 47 45 42 40 38 37 37 37 38 38 39 39 39 37 35 34 34 34 34
21 21 22 22 23 23 24 25 26 27 29 29 30 32 33 35 36 37 39 41 44 45 46 47 47 44 41 39 38 38 38 38 39 39 40 40 39 37 35 34 34 34 34
23 23 23 24 24 25 26 27 28 29 30 31 32 33 34 36 37 38 40 43 45 46 48 48 46 44 41 40 39 39 39 40 40 39 39 39 39 37 35 34 34 34 34
24 24 24 25 25 26 27 28 29 30 31 32 33 34 35 36 38 39 42 44 46 48 49 48 45 43 41 40 39 39 39 39 39 39 39 38 38 36 35 34 34 33 33
24 25 25 25 26 27 27 28 29 31 32 33 34 35 36 37 39 40 43 46 48 49 49 47 45 43 41 40 40 39 39 38 38 38 38 37 36 35 34 33 33 32 32
25 25 25 25 26 27 28 29 30 31 33 34 35 36 36 38 39 42 45 47 49 50 49 47 44 43 41 40 39 38 37 37 36 36 35 35 34 33 33 32 30 30 30
25 25 25 25 26 27 28 29 31 33 34 35 35 36 37 38 40 43 46 48 49 50 48 46 44 42 41 40 38 37 35 35 34 34 34 33 33 32 31 29 28 28 30

GEFSGL_500_meanwind_036.txt.gz
Wind_Speed
34 35 36 37 37 38 38 39 41 44 46 49 52 54 57 58 59 60 59 58 57 57 57 57 57 58 58 57 56 56 58 58 58 57 56 56 57 55 54 55 57 57 59
32 33 35 35 35 36 36 38 40 42 44 47 49 50 52 52 51 51 51 50 50 50 51 52 52 53 54 54 55 55 56 57 57 59 60 58 58 59 60 60 60 61 62
31 32 32 32 33 34 35 36 38 39 41 43 44 45 44 43 42 41 40 40 40 41 43 45 46 48 49 50 52 54 55 55 56 57 57 58 60 60 61 62 63 64 65
29 30 30 31 32 32 33 35 36 37 39 39 39 39 38 38 36 34 33 32 33 34 35 37 40 41 44 46 48 50 52 53 54 55 56 57 58 60 62 63 63 64 65
29 29 29 30 31 32 32 33 34 34 35 35 35 35 34 33 32 29 28 27 27 28 30 32 35 36 38 40 42 44 45 47 48 50 52 55 57 58 60 61 61 62 64
29 28 29 29 30 30 31 31 32 32 32 32 32 31 30 29 27 25 23 21 21 22 23 25 27 28 31 34 36 38 40 42 44 46 49 52 54 55 57 58 60 62 64
26 27 27 28 28 28 29 29 29 30 29 29 28 27 26 25 23 21 19 17 16 16 17 19 21 23 26 29 30 31 34 37 40 43 45 47 49 51 54 57 60 62 65
24 24 25 25 26 26 27 27 27 26 26 26 25 24 22 21 20 19 17 16 14 13 13 13 15 17 20 22 25 28 31 33 36 39 42 45 48 52 55 58 60 62 64
22 22 22 23 23 23 24 24 24 23 23 22 21 20 20 19 18 17 17 15 14 13 13 12 13 14 17 19 22 25 28 31 35 39 43 47 51 54 57 59 59 59 58
20 20 20 20 20 21 21 21 21 21 20 20 19 19 18 18 17 16 16 15 14 13 12 14 15 16 18 21 24 27 31 35 39 42 46 49 52 55 56 56 55 54 52
18 19 19 19 19 20 20 19 19 19 19 19 19 18 18 18 17 17 16 16 15 15 16 17 19 21 23 26 29 33 36 39 43 46 48 51 53 54 54 53 51 49 48
18 18 18 18 19 19 19 19 19 19 19 19 19 18 18 18 18 18 18 18 18 19 21 22 25 27 30 32 35 37 40 43 46 48 50 52 52 52 51 49 47 46 45
18 19 19 19 19 19 19 19 19 19 19 19 19 19 19 19 20 20 21 22 23 24 26 28 30 32 34 36 39 41 43 46 48 50 51 52 52 51 49 47 46 45 44
19 20 20 19 19 19 19 19 19 20 20 19 20 20 20 21 22 23 24 26 27 29 30 32 34 36 37 40 42 44 46 48 50 51 52 52 51 49 47 46 44 43 43
21 21 21 21 20 21 21 21 21 21 21 21 22 22 23 24 25 26 27 29 30 32 33 35 37 38 40 42 44 45 47 49 51 51 51 51 49 47 46 45 44 43 42
22 22 22 22 22 22 22 22 23 23 23 24 24 25 26 27 28 29 30 32 33 34 35 37 39 40 42 44 45 47 49 51 52 52 50 49 47 46 45 45 44 43 42
23 24 24 24 24 24 24 24 25 25 26 27 27 28 29 30 31 32 33 34 36 37 38 39 40 41 43 45 47 49 51 52 52 51 49 48 46 46 45 45 44 43 42
24 25 25 25 26 26 26 26 27 27 28 29 30 31 31 32 33 34 35 36 38 39 40 41 41 43 45 47 49 51 52 52 51 50 48 47 46 45 44 44 43 42 41
25 26 26 27 27 27 27 28 28 29 30 30 31 32 33 34 35 36 37 38 39 40 41 42 43 45 47 49 51 52 52 52 50 48 47 46 46 45 44 43 42 41 41
27 27 27 28 28 28 29 30 30 31 31 32 33 33 34 35 36 37 38 39 40 41 42 43 44 46 49 51 52 52 52 51 49 47 46 45 44 44 43 42 41 40 40
28 28 28 29 29 30 31 31 31 32 32 33 33 34 35 35 36 37 39 40 41 42 43 44 46 48 50 52 53 52 52 50 48 46 45 44 43 42 41 40 40 40 39
28 29 29 30 30 30 30 31 31 32 32 33 34 34 35 36 37 38 40 41 41 42 43 45 47 50 52 53 53 52 50 49 47 45 44 42 41 40 39 39 38 38 37
30 30 30 30 30 30 30 31 32 32 33 33 34 34 35 37 38 39 40 41 42 43 45 46 49 51 53 53 52 50 49 47 45 44 42 40 39 38 37 36 36 35 35
31 31 31 31 31 31 32 32 32 33 33 33 34 35 36 37 38 39 40 41 42 44 46 48 50 52 53 52 50 49 47 46 44 42 40 37 36 35 35 34 33 33 33
31 31 31 31 31 32 32 32 32 33 33 33 34 35 37 38 39 39 40 42 43 45 47 48 50 52 52 51 49 48 46 45 43 40 37 35 33 33 33 32 31 31 31
30 30 31 31 31 31 32 32 32 32 33 34 35 36 37 38 38 39 40 42 43 45 47 49 51 51 51 50 48 47 45 43 41 39 37 34 33 32 31 30 29 29 30

GEFSGL_500_meanwind_042.txt.gz
Wind_Speed
40 40 39 39 39 39 39 39 39 39 40 40 40 39 40 40 42 43 44 45 46 47 48 49 49 48 47 46 44 44 45 45 45 45 47 48 48 49 49 49 51 52 50
38 38 37 37 37 37 37 36 37 37 38 38 37 37 38 39 40 41 42 43 43 44 44 44 43 44 43 41 38 37 38 39 38 39 41 43 45 46 47 48 48 49 49
35 35 35 34 34 34 34 35 35 35 35 35 36 36 37 38 38 39 40 40 40 40 39 39 38 38 37 35 33 32 33 32 32 33 35 36 39 42 45 47 49 49 49
33 32 32 32 32 32 32 33 33 33 33 34 35 35 35 36 36 37 37 36 36 35 34 34 34 34 33 31 29 28 28 27 28 29 31 33 35 38 41 44 46 47 49
29 29 29 29 29 29 30 31 31 31 32 32 33 33 34 34 34 34 33 32 32 31 31 31 31 30 29 28 26 25 24 23 24 25 27 29 32 35 37 39 42 43 45
25 25 25 25 26 27 28 28 29 29 30 30 30 31 32 32 32 31 30 29 29 28 28 28 27 26 26 25 23 22 22 22 22 23 24 26 28 31 33 36 39 41 43
22 22 22 23 24 25 25 26 27 27 27 28 29 29 29 29 28 28 27 27 26 26 25 25 24 24 24 23 22 21 21 20 21 23 24 26 28 30 33 35 38 40 43
19 19 20 21 21 22 23 23 24 25 25 26 26 26 26 26 26 25 24 24 24 23 23 22 22 22 23 23 22 22 21 22 23 24 25 27 30 32 35 37 40 43 46
17 17 18 18 19 20 21 21 22 23 23 24 24 25 24 24 23 23 22 22 22 23 23 23 23 24 24 24 24 25 25 26 27 28 30 32 34 36 38 41 43 46 48
16 16 16 17 17 18 19 21 22 22 23 23 24 23 23 23 22 22 22 23 24 24 25 26 26 27 27 28 29 29 30 31 32 33 34 36 38 40 42 44 46 48 50
16 16 16 17 18 19 20 21 22 22 23 23 23 23 23 23 23 23 24 25 26 27 28 28 29 30 31 31 32 33 33 34 35 36 37 39 41 43 45 46 48 50 52
16 17 17 18 19 20 21 22 22 23 23 23 23 23 23 24 24 25 26 27 28 29 30 31 31 32 33 34 34 35 36 37 38 39 40 42 44 45 47 49 51 52 54
18 18 19 19 20 21 22 23 23 23 24 24 25 25 25 25 26 27 28 29 30 31 31 32 33 34 34 35 36 37 38 39 40 41 42 44 46 48 50 51 53 54 54
20 20 21 21 22 23 23 24 24 25 25 25 26 26 27 27 28 29 30 31 31 32 33 34 34 35 36 37 38 39 40 41 42 43 45 47 48 50 52 53 53 53 53
22 22 23 24 24 25 25 25 26 26 27 27 27 28 28 29 30 31 31 32 33 33 34 35 36 37 38 38 39 41 42 43 44 45 47 49 51 52 53 53 52 52 50
24 24 25 25 26 26 27 27 28 28 28 28 28 29 30 31 32 32 32 33 34 35 35 36 37 38 39 40 42 43 43 45 46 48 50 51 52 53 53 53 51 50 49
27 27 27 27 28 28 28 29 29 29 29 29 30 30 31 32 33 33 34 34 35 36 36 38 39 40 41 42 43 44 46 47 49 50 52 53 53 53 53 52 50 49 48
29 29 29 29 29 30 30 30 30 30 30 31 31 32 33 34 34 34 35 36 36 37 38 39 40 41 42 44 45 46 47 49 51 52 53 54 54 53 51 50 49 48 46
31 31 31 31 31 31 31 31 31 31 32 32 33 33 34 34 35 35 36 37 37 38 39 40 41 42 44 45 46 47 49 51 52 53 54 54 53 51 50 50 48 46 44
33 33 33 33 33 33 33 32 32 32 33 33 33 34 34 35 36 36 37 37 38 39 40 41 42 44 45 46 47 49 50 52 52 53 54 54 53 51 50 48 46 43 41
34 34 34 33 33 33 33 33 33 33 33 34 35 35 35 36 37 37 38 38 39 40 41 42 43 44 46 47 48 50 51 52 53 54 55 54 52 51 49 46 43 41 39
35 34 34 33 33 33 33 34 34 34 35 35 35 36 36 37 37 38 38 39 39 40 42 43 45 45 46 47 49 50 52 53 54 54 54 52 51 49 46 43 41 39 37
34 34 33 33 33 33 34 34 34 35 35 36 36 36 37 37 37 38 39 39 40 42 42 44 45 46 47 48 49 51 52 53 54 53 52 50 48 46 43 40 38 37 36
33 33 33 33 33 33 34 34 34 35 35 35 36 36 36 37 38 38 39 40 41 42 43 44 45 46 47 48 50 51 52 53 52 52 50 47 45 43 41 38 37 36 35
32 32 33 33 33 33 34 34 34 34 34 35 35 35 36 37 38 38 39 40 41 42 43 44 45 45 47 48 50 51 52 52 51 50 47 45 42 40 38 37 36 35 35
30 31 32 32 32 32 32 33 33 33 34 34 34 35 36 36 37 38 39 40 41 42 43 43 44 45 46 48 50 51 51 51 50 49 46 43 40 39 37 35 35 34 34

GEFSGL_500_meanwind_048.txt.gz
Wind_Speed
46 46 46 46 46 46 46 46 47 47 46 45 44 42 42 41 41 42 42 42 42 42 42 42 42 42 42 41 41 41 41 40 39 37 36 35 33 31 29 28 26 24 24
45 45 45 45 45 45 46 45 45 44 43 41 40 40 39 39 40 40 41 40 40 40 40 40 40 40 39 38 38 38 37 36 35 34 33 31 30 28 26 24 23 22 22
44 44 44 44 44 44 44 43 42 40 39 38 37 37 37 38 38 38 38 38 38 39 39 39 38 37 36 36 35 35 34 33 32 31 30 29 28 27 25 23 22 22 22
43 43 43 42 42 41 40 39 38 36 36 35 35 35 36 36 36 36 36 36 37 37 37 36 35 34 34 33 32 32 31 30 29 29 29 28 27 26 25 24 23 23 24
40 40 40 40 39 38 36 35 34 33 33 33 33 34 34 34 34 34 34 34 35 35 34 33 33 32 31 31 30 30 29 29 29 29 29 29 28 27 26 26 25 26 26
38 37 37 36 35 34 33 32 31 31 30 31 31 31 31 31 31 32 32 33 32 32 32 31 30 30 29 29 29 30 29 29 29 30 30 30 30 29 29 29 29 29 29
35 34 34 32 32 31 30 29 29 28 28 28 28 28 28 29 30 30 30 31 31 30 30 29 28 29 29 30 30 30 31 31 31 32 32 32 32 32 32 32 33 33 33
32 31 31 30 29 28 27 26 26 26 25 25 25 26 26 27 28 29 29 29 29 29 29 28 29 29 30 31 31 32 32 33 34 34 34 34 34 34 35 35 36 37 37
29 28 28 27 26 25 24 24 23 23 22 22 23 24 25 26 27 28 28 28 28 28 29 29 29 30 31 32 32 33 34 34 35 35 36 36 36 37 37 38 38 39 40
26 26 26 25 25 24 23 23 22 21 21 22 23 24 25 26 27 28 28 28 28 29 30 30 31 31 32 33 34 35 35 36 36 37 37 38 38 39 39 40 41 42 43
25 25 25 24 23 23 22 22 21 21 22 23 24 25 26 27 27 28 28 29 29 30 31 31 32 33 34 35 35 36 37 37 38 39 39 40 40 41 42 43 43 45 46
25 24 24 24 24 23 22 22 22 22 23 24 25 26 27 28 28 29 29 30 31 31 32 33 33 34 35 36 37 38 38 39 40 40 41 42 42 43 44 45 46 47 49
24 24 24 24 24 23 23 23 23 24 24 25 26 27 28 29 30 30 31 32 32 33 34 34 35 36 37 38 38 39 39 40 41 41 42 43 44 45 46 47 48 50 51
23 23 24 24 24 24 24 24 25 25 26 27 28 29 30 31 31 32 33 34 34 35 35 36 37 37 38 39 39 40 41 41 42 43 44 45 46 47 48 49 50 51 52
24 24 24 25 25 25 26 26 26 27 28 29 30 31 31 32 33 33 34 35 36 36 37 38 38 38 39 40 41 41 42 43 43 44 45 46 47 49 50 50 51 52 53
25 25 26 26 26 27 27 28 29 29 30 31 32 32 33 33 34 34 35 36 37 37 38 38 39 39 40 41 41 42 43 44 44 45 46 47 49 49 50 51 52 52 53
27 27 28 28 29 29 30 30 31 31 32 33 33 34 34 34 35 36 36 37 37 38 39 39 40 41 41 42 42 43 44 45 46 46 47 48 49 50 51 52 52 53 52
29 29 30 30 31 31 32 32 33 33 34 34 34 34 35 35 36 36 37 38 39 39 40 40 41 42 42 43 44 44 45 46 47 48 48 49 49 50 51 52 52 52 51
31 31 31 32 32 32 33 34 34 34 35 35 35 35 35 36 36 37 37 38 39 40 40 41 42 42 43 44 45 46 47 48 48 48 49 50 50 51 51 52 52 51 50
32 32 33 33 33 34 34 34 34 35 35 35 35 35 36 36 37 37 38 39 39 40 40 41 42 43 44 45 46 47 47 48 48 48 49 50 50 51 51 52 51 50 49
32 33 33 34 34 34 34 35 35 35 35 35 35 36 36 37 38 38 39 39 39 40 41 42 42 43 44 45 46 47 47 47 48 48 49 50 50 51 52 51 51 50 48
32 32 33 33 34 35 35 36 35 35 35 35 36 36 37 37 38 38 39 39 40 40 41 42 43 43 44 45 45 46 46 47 48 49 49 50 50 51 51 51 50 48 46
31 32 33 33 34 34 35 35 34 34 35 35 35 36 36 37 38 39 39 39 40 40 41 42 42 43 44 45 45 45 46 47 48 48 49 49 50 51 50 49 48 47 46
32 32 33 33 33 34 34 34 34 34 34 35 36 36 37 37 38 38 38 38 39 39 40 40 42 43 44 44 44 45 46 46 47 48 48 49 49 50 50 48 47 46 45
30 31 32 33 33 33 33 33 33 33 34 34 35 36 36 36 36 36 36 36 37 38 39 40 42 43 43 44 45 46 47 47 48 48 48 49 49 49 48 47 46 45 44
28 29 30 30 31 31 31 32 32 33 33 34 34 34 33 33 33 34 34 35 36 38 39 41 42 43 44 45 46 47 47 48 49 49 49 48 48 47 47 46 45 44 43

GEFSGL_500_meanwind_054.txt.gz
Wind_Speed
46 46 46 46 46 46 46 47 47 47 47 47 47 47 47 46 46 46 46 45 44 43 41 41 40 40 39 39 38 38 38 38 37 36 35 34 33 32 31 31 30 29 29
48 48 48 48 48 48 48 48 48 47 47 47 46 46 46 45 45 45 44 43 42 40 40 39 39 38 37 37 36 36 36 36 35 34 33 33 32 31 31 30 30 29 29
48 48 48 48 49 49 48 48 48 48 47 47 46 45 44 44 43 42 41 41 39 39 38 37 37 36 35 35 35 34 34 34 34 33 32 32 31 31 31 31 30 30 29
47 47 47 48 48 47 47 47 47 47 46 46 45 44 43 42 41 40 39 38 37 37 36 35 34 34 33 33 33 33 33 33 32 32 32 31 31 31 32 31 31 31 31
44 45 45 46 46 46 46 45 45 44 44 43 43 42 41 40 39 38 37 36 35 34 33 33 32 32 32 32 32 32 32 31 31 31 31 32 32 32 32 32 32 32 32
42 43 43 43 43 43 43 43 43 42 42 41 41 40 39 38 37 36 35 34 33 32 31 31 30 30 30 31 31 31 31 31 31 31 32 32 32 33 33 33 33 33 33
41 41 42 42 41 41 41 40 40 40 39 39 38 37 36 36 35 33 32 31 30 29 29 29 29 29 29 29 30 30 30 31 32 32 33 33 34 34 35 35 35 36 35
38 39 39 39 39 38 38 38 38 37 37 36 35 35 34 32 31 30 29 28 28 28 28 28 28 28 29 29 30 30 31 32 33 34 34 35 35 36 36 37 37 37 37
37 37 36 36 36 36 35 35 35 35 34 33 33 32 31 30 29 28 27 27 27 27 27 27 27 28 29 30 31 32 33 33 34 35 36 36 37 37 38 38 38 39 39
34 34 34 34 34 33 33 32 32 31 31 30 30 30 29 29 28 27 27 27 27 27 27 27 28 29 30 31 32 33 34 35 36 36 37 38 39 39 39 40 40 40 41
32 31 31 31 31 30 30 30 29 29 29 29 29 29 28 28 27 27 27 27 27 28 28 29 29 30 31 32 33 34 35 36 37 37 38 39 40 40 41 41 41 42 43
28 28 28 28 28 28 28 28 28 28 28 28 28 28 28 28 28 28 28 28 28 29 29 30 31 32 33 34 35 36 36 37 38 39 40 40 41 41 41 42 43 44 45
26 26 26 27 27 27 27 27 27 27 27 28 28 28 28 28 28 28 29 29 30 31 31 32 33 33 34 35 36 36 37 38 39 40 40 41 41 42 43 45 46 47 47
24 25 25 25 26 26 26 26 27 27 27 28 28 29 29 29 29 30 30 31 32 33 33 34 35 35 36 36 37 38 39 40 40 41 41 42 43 44 45 46 47 48 49
25 25 25 25 25 25 25 26 27 27 28 28 29 29 30 30 30 31 32 33 34 34 35 35 36 36 37 37 38 39 40 40 41 41 42 43 44 46 47 47 48 48 49
25 25 25 25 25 25 26 26 26 27 27 28 29 29 30 31 32 32 33 34 35 35 36 36 37 37 38 38 39 39 40 41 41 42 43 44 45 46 47 47 47 48 48
25 25 25 26 26 26 26 26 27 28 29 29 30 31 32 32 33 34 35 36 36 36 36 37 37 38 38 39 39 40 40 41 42 43 44 45 46 46 47 47 47 47 47
27 27 27 27 27 27 28 28 29 29 30 31 32 32 33 34 34 35 35 36 37 37 37 37 38 38 38 38 39 40 41 42 42 43 44 45 46 46 46 47 47 47 47
28 27 28 28 28 29 30 30 31 31 32 32 33 34 34 35 35 36 37 37 37 38 38 38 38 38 38 39 40 41 41 42 42 43 44 45 45 46 46 47 47 47 48
29 29 30 30 30 31 31 32 32 33 34 34 35 36 36 36 37 38 38 38 38 39 39 38 39 39 39 40 41 41 41 42 42 43 44 45 45 46 47 47 47 47 48
30 30 30 31 31 31 32 32 33 34 35 35 36 37 38 38 38 39 39 39 39 39 39 39 40 40 40 40 41 41 41 41 42 43 44 45 46 47 47 48 48 48 49
32 31 31 31 32 32 32 33 33 34 35 36 36 37 38 38 38 39 39 39 39 39 39 39 40 40 40 40 40 40 41 41 42 44 45 46 47 48 48 48 49 50 49
32 32 32 32 32 32 33 33 33 34 34 35 36 37 37 37 38 38 38 38 38 39 39 39 39 39 39 38 39 39 40 41 43 45 46 47 48 48 49 49 50 50 49
32 32 32 31 31 31 31 32 32 33 33 34 35 36 37 37 37 37 38 38 38 38 38 37 37 37 37 38 38 39 40 42 44 46 47 47 48 49 49 50 50 49 49
31 30 30 30 30 30 30 30 31 31 32 33 34 34 35 35 36 36 37 37 37 37 37 36 36 37 37 38 38 39 41 43 45 46 47 47 48 49 50 50 49 49 49
29 29 29 28 28 28 28 29 29 30 30 31 31 31 32 32 33 33 34 34 34 35 35 36 36 36 36 37 39 40 43 45 46 47 47 47 48 49 49 49 48 48 48

GEFSGL_500_meanwind_060.txt.gz
Wind_Speed
49 50 50 51 52 52 52 51 50 49 48 48 48 47 47 47 47 47 47 46 46 45 45 45 45 44 44 43 42 40 39 38 37 36 34 33 32 31 30 30 29 29 29
47 49 50 51 51 51 51 50 49 48 48 48 48 48 48 48 48 47 47 46 46 46 46 45 44 44 43 42 40 39 37 36 35 33 32 31 30 30 30 29 29 28 28
43 44 45 46 46 46 46 46 46 47 47 47 48 48 48 48 48 47 47 46 46 45 44 44 43 43 41 40 38 36 35 34 33 32 31 30 29 29 29 28 28 28 28
39 40 40 41 42 42 44 45 46 46 47 47 47 47 47 47 47 46 46 45 45 44 43 43 42 41 39 37 35 34 33 33 31 31 30 29 28 28 28 28 28 29 29
36 37 38 40 41 42 43 44 45 46 46 46 46 46 45 45 45 45 44 44 43 42 41 40 39 38 36 34 33 32 32 31 30 29 28 28 28 28 29 29 30 30 31
36 37 38 39 40 41 42 42 43 44 44 44 44 44 44 44 44 43 43 42 41 40 38 37 35 34 33 33 32 31 31 30 29 28 28 28 29 29 30 31 32 32 32
36 37 38 39 40 40 41 42 42 42 42 43 43 43 43 43 42 42 40 39 38 36 35 34 33 32 31 31 30 30 29 29 28 28 29 29 30 31 32 33 33 33 34
37 37 38 39 39 40 41 41 41 41 41 41 41 41 41 40 39 38 37 36 35 34 32 31 30 30 29 29 29 29 29 29 29 29 30 31 32 32 33 34 34 35 36
36 37 38 38 39 39 39 40 39 39 39 39 38 38 37 36 35 34 34 33 32 31 30 29 29 28 28 29 29 29 30 30 30 31 31 32 33 34 35 35 36 36 37
35 35 36 37 37 37 37 37 36 36 36 35 34 34 33 33 32 32 31 30 30 29 29 29 28 29 29 29 29 30 30 31 32 32 33 34 35 35 36 36 37 37 38
34 34 34 35 35 35 34 34 33 33 32 31 31 31 30 30 30 30 29 29 28 28 28 28 29 29 30 30 30 31 31 32 33 34 35 36 36 37 37 38 38 38 39
33 33 32 32 32 32 32 32 31 31 30 30 29 29 28 28 28 28 28 28 28 28 28 29 30 30 30 31 31 32 33 34 35 35 36 37 37 38 38 38 39 39 39
32 32 31 30 30 30 29 28 28 28 28 28 27 27 27 27 28 27 27 27 28 29 29 30 30 31 32 32 33 34 35 35 36 37 37 37 38 38 38 39 39 39 40
31 31 30 29 29 28 27 26 25 26 26 26 26 26 27 27 27 27 27 27 28 28 29 30 31 32 33 34 34 35 36 37 37 38 38 38 39 39 39 39 40 41 42
30 30 29 28 27 27 26 26 25 25 25 25 26 26 25 25 25 26 27 28 28 29 30 31 32 33 34 35 36 37 37 38 38 39 39 39 39 39 40 40 40 41 42
29 28 28 28 28 27 26 25 25 25 26 25 25 25 26 26 26 27 27 28 29 30 31 32 33 34 35 36 37 37 38 38 38 39 39 39 40 40 41 41 41 41 42
28 28 29 28 28 27 27 26 26 26 26 26 25 25 26 26 27 27 28 29 30 31 32 33 34 35 36 37 37 38 38 39 39 39 40 40 40 41 41 41 41 42 42
30 29 28 27 27 27 27 27 26 26 26 26 27 27 28 28 29 29 30 30 31 33 34 35 36 36 37 38 38 39 39 40 40 40 40 41 41 41 41 41 41 42 43
32 31 30 29 28 28 28 28 27 28 28 28 28 29 30 30 31 31 32 32 33 35 36 37 37 38 38 39 39 40 40 40 40 40 40 40 40 41 41 42 42 43 43
33 33 32 31 31 30 30 29 29 30 29 30 30 30 31 32 32 33 34 34 35 36 37 37 38 38 38 39 39 39 39 39 40 40 40 40 41 41 41 42 43 43 44
35 35 34 33 33 32 32 32 32 32 32 31 31 32 32 33 33 33 34 34 35 36 37 37 38 38 38 39 39 39 39 40 40 40 40 41 41 41 42 42 43 44 45
37 36 36 35 34 33 33 33 33 33 33 33 33 33 33 33 33 34 34 34 35 36 36 36 37 38 39 39 39 39 39 39 39 40 40 41 41 41 42 43 44 46 47
38 38 37 35 35 34 34 34 34 34 34 34 34 34 34 34 33 33 33 33 34 35 35 36 36 37 38 38 38 39 39 39 39 40 40 40 41 42 43 44 46 47 48
38 38 37 36 35 34 33 33 34 34 34 34 33 33 32 32 32 32 32 32 33 34 34 34 35 35 36 36 37 37 37 38 39 39 40 40 41 43 44 46 47 48 49
39 38 38 37 35 34 33 33 33 33 33 33 32 31 31 31 31 31 31 32 32 32 32 32 32 32 33 34 35 35 36 37 38 39 40 41 42 44 45 47 48 48 49
38 37 37 36 35 34 33 33 33 32 32 31 30 30 29 29 30 30 30 30 30 30 30 30 31 32 33 34 35 36 37 38 39 39 40 41 43 45 46 47 48 48 49

GEFSGL_500_meanwind_066.txt.gz
Wind_Speed
43 45 46 48 49 49 50 51 51 51 51 51 52 52 51 51 51 51 51 50 49 49 48 47 47 46 46 45 45 45 44 44 43 42 42 40 38 36 35 33 32 31 29
44 45 45 46 48 49 49 50 50 51 52 52 52 52 52 52 51 51 50 50 50 49 48 48 47 47 46 46 45 45 44 43 42 41 40 38 36 35 34 32 31 30 29
43 44 45 46 47 47 48 49 49 50 51 52 51 50 50 49 49 49 48 48 48 48 47 47 47 46 46 45 45 44 43 42 41 39 38 36 35 34 33 31 30 29 28
39 41 42 43 45 47 48 48 48 48 47 47 47 47 47 46 45 45 45 46 46 47 46 46 46 46 45 44 43 43 42 40 39 37 36 34 33 32 31 30 29 28 27
39 40 41 42 43 43 44 44 44 44 43 43 43 43 43 44 44 44 45 45 45 45 46 45 45 44 43 42 41 40 39 38 37 35 33 32 31 30 30 29 28 28 28
39 40 40 41 42 43 43 43 43 42 42 42 42 42 42 42 43 43 43 43 43 44 44 43 43 42 41 40 39 38 37 35 34 32 31 31 30 29 29 29 29 29 29
39 40 40 41 41 42 42 42 42 42 42 42 42 42 42 42 42 42 43 43 42 42 42 42 41 40 39 38 37 36 34 32 31 30 30 29 29 29 29 29 29 30 30
40 40 40 40 41 41 41 41 41 41 41 41 42 42 42 42 42 42 42 41 41 41 40 39 39 38 37 36 34 33 32 31 30 29 28 28 29 29 30 30 30 30 31
40 40 40 40 41 41 41 41 41 41 41 41 41 41 40 40 40 40 39 38 38 38 37 36 35 34 34 34 33 32 31 30 29 28 28 28 29 29 30 30 30 31 31
40 41 41 40 40 40 40 40 40 40 39 39 39 39 38 38 37 36 36 35 35 34 34 34 33 32 32 32 31 30 29 29 29 29 29 29 29 30 30 31 31 31 32
40 40 40 40 40 40 39 39 39 38 38 38 37 36 36 35 34 34 33 33 32 32 32 31 31 31 31 31 30 30 29 29 29 29 30 30 31 31 32 32 32 32 32
40 39 40 40 39 39 39 38 38 37 37 36 35 35 34 34 33 32 31 31 30 30 30 30 29 30 30 30 29 29 29 29 29 30 31 31 32 32 32 32 33 32 33
39 39 39 39 39 39 38 38 37 36 35 34 34 33 32 31 30 29 29 29 28 28 28 28 28 28 28 28 28 28 28 29 30 30 31 32 33 33 33 33 33 34 34
39 39 39 39 38 38 38 37 37 36 35 34 33 32 31 30 29 28 27 27 26 26 26 26 26 27 27 27 27 28 28 29 30 31 32 33 33 34 34 34 35 35 36
38 38 38 38 38 38 37 37 36 35 34 33 32 31 30 28 27 26 26 25 25 24 23 24 24 25 25 26 26 27 28 29 30 31 32 33 33 34 35 35 36 37 38
36 37 37 37 37 37 36 36 35 34 33 33 32 31 30 29 27 26 25 24 24 23 23 23 24 24 25 26 27 28 29 30 31 32 33 33 34 35 36 37 37 38 38
36 37 37 36 36 35 35 34 34 33 32 32 31 30 29 29 28 27 26 25 25 24 25 25 26 26 27 28 29 29 30 31 32 33 34 35 36 37 37 38 38 39 39
38 37 37 37 36 36 35 34 33 33 32 32 31 30 30 29 28 27 27 26 26 26 27 27 27 28 28 29 30 31 32 33 33 34 35 36 37 38 38 38 39 39 40
39 39 38 37 37 36 36 36 35 34 33 32 32 31 30 29 29 28 27 27 27 28 28 29 29 29 30 30 31 32 33 33 34 35 36 37 37 38 38 39 40 40 41
40 40 39 39 38 37 37 37 36 35 33 32 32 32 31 30 30 29 29 29 29 29 29 30 31 31 32 32 32 33 33 34 35 35 36 37 37 38 38 39 40 40 40
39 40 40 40 39 39 38 38 37 36 35 34 33 33 33 32 31 30 30 30 30 31 31 32 32 32 32 32 33 33 34 34 34 35 35 36 36 37 38 39 39 40 40
39 39 40 41 40 39 39 39 38 37 36 36 35 35 34 34 33 32 32 32 32 33 33 33 33 33 33 33 33 33 33 33 34 34 35 36 37 37 38 39 39 40 41
40 39 40 40 40 40 40 39 39 39 37 36 36 35 35 34 34 34 34 33 33 33 34 34 33 33 33 33 33 33 33 34 34 35 35 36 37 38 39 39 40 40 41
41 40 40 39 39 40 40 40 39 39 39 37 36 36 35 35 34 34 34 34 34 34 34 34 33 33 33 33 33 33 33 34 34 35 35 36 37 38 39 40 40 41 41
41 40 40 39 38 38 39 40 39 39 38 38 37 36 35 35 34 33 33 32 32 33 33 33 33 33 33 33 33 33 33 33 34 35 35 36 37 38 39 40 41 41 42
41 40 40 39 38 38 38 39 39 38 37 37 37 36 35 34 34 33 32 31 32 32 32 32 31 31 31 31 31 32 32 33 34 35 35 37 38 39 40 41 42 42 43

GEFSGL_500_meanwind_072.txt.gz
Wind_Speed
40 41 42 43 43 44 44 45 46 46 47 48 48 49 50 51 50 50 50 50 50 50 50 50 49 50 50 49 49 49 48 48 48 47 46 45 44 43 42 41 38 37 36
41 42 43 44 45 45 46 47 47 48 49 49 49 49 49 50 50 50 50 50 50 49 49 49 49 49 49 48 48 48 48 47 47 46 45 45 44 43 41 39 37 36 34
44 45 45 46 46 47 48 48 49 49 49 49 50 50 50 51 51 50 50 50 49 48 48 47 47 47 47 47 47 46 46 46 46 45 44 43 42 41 39 37 35 34 32
46 47 47 47 47 48 48 49 49 49 49 49 49 49 50 49 49 48 48 47 47 46 46 46 46 46 46 46 45 45 45 45 44 44 42 41 40 38 36 35 34 33 32
47 48 48 48 48 48 48 48 48 48 48 47 47 47 47 46 46 45 45 45 45 45 45 45 44 44 44 44 44 44 44 43 42 41 40 38 37 35 34 33 32 31 30
49 49 49 49 49 49 49 48 48 48 47 47 46 46 46 46 46 46 45 45 44 44 43 43 43 43 43 43 43 43 42 41 40 39 38 36 35 33 32 32 31 30 29
51 51 51 51 51 51 50 50 49 49 49 48 48 47 47 47 46 45 44 44 43 43 42 42 42 41 41 41 41 40 39 38 37 37 36 35 33 32 32 31 30 29 28
51 51 51 51 51 51 51 50 50 49 48 48 47 46 46 45 45 44 43 42 42 41 41 41 41 40 40 39 39 38 37 36 35 34 33 33 32 32 31 30 29 29 28
50 50 50 50 50 50 49 49 48 48 47 46 45 45 44 43 43 43 42 42 41 40 40 39 39 38 37 37 36 35 34 33 33 32 32 31 31 31 31 30 29 28 28
49 49 49 49 49 48 48 47 47 46 46 45 45 44 43 43 42 42 41 41 40 40 39 38 37 36 35 34 34 33 32 31 31 30 30 30 30 30 30 29 28 28 28
49 49 49 49 48 48 48 47 47 46 45 45 44 43 43 42 42 41 40 40 39 39 37 36 36 35 33 33 32 31 31 31 30 30 29 29 28 28 28 28 28 28 28
50 49 49 48 48 48 47 47 46 46 45 45 44 43 42 42 41 40 39 39 37 37 35 35 34 33 32 31 30 29 29 29 28 28 28 27 27 27 27 27 28 28 29
49 49 49 48 48 47 47 46 46 45 45 44 43 42 41 41 40 39 38 37 36 35 34 33 32 31 30 30 29 28 28 27 26 26 26 26 26 26 27 28 28 29 29
48 48 48 47 47 46 46 46 46 45 44 44 43 42 41 40 39 38 37 36 35 34 33 32 31 30 29 28 28 27 26 26 26 26 26 26 26 26 27 27 28 29 30
49 48 48 47 47 46 45 44 44 44 43 43 42 41 40 39 39 38 37 36 35 33 32 31 30 30 28 27 26 26 26 25 25 25 25 26 26 26 27 28 28 29 30
47 47 47 46 46 45 44 44 43 43 42 42 42 41 40 39 38 37 36 35 34 33 32 31 30 29 28 27 26 26 25 25 24 25 25 26 27 28 28 29 29 30 31
47 45 45 45 45 44 44 43 43 43 42 42 41 40 39 38 38 37 35 34 33 32 31 31 30 29 28 27 27 26 26 26 26 26 27 27 28 28 29 29 30 31 32
47 47 46 45 45 44 44 43 43 42 42 42 40 39 38 37 37 36 35 33 32 31 31 31 31 30 29 28 28 28 28 27 27 28 28 28 29 29 30 30 31 32 32
46 46 46 45 44 44 43 43 43 42 42 41 40 39 38 37 36 35 34 33 32 31 31 31 30 30 29 29 29 29 29 29 29 29 29 30 30 30 31 31 31 32 32
45 46 46 45 44 44 43 43 42 42 42 41 40 39 38 38 37 35 34 33 33 32 31 30 30 30 30 29 29 29 29 29 29 30 30 30 30 31 31 31 31 32 33
45 45 45 45 45 44 43 42 42 42 41 40 40 39 39 38 37 36 34 33 33 32 32 31 31 31 31 31 30 30 30 30 31 31 31 31 31 31 32 32 33 33 34
44 44 44 44 44 44 43 43 42 41 40 39 39 39 39 38 37 36 35 34 33 33 33 32 32 32 32 31 31 31 31 32 32 32 32 32 32 33 33 33 34 35 35
39 41 42 43 43 43 43 43 42 42 41 40 39 39 39 39 37 36 35 34 34 34 34 34 33 32 32 32 31 31 31 31 32 32 32 32 32 33 33 34 35 36 36
36 37 38 40 41 42 42 43 42 41 40 41 40 39 39 39 38 38 37 36 35 34 34 33 33 33 32 32 32 31 31 31 31 31 32 32 33 33 34 35 35 36 37
33 33 35 37 39 40 40 41 42 41 41 40 40 39 38 38 38 38 38 37 36 35 33 33 32 32 32 32 32 31 31 31 31 32 32 32 33 34 34 35 35 36 37
30 31 32 33 36 38 39 39 40 40 40 39 39 39 38 38 38 37 37 37 36 35 34 33 32 31 31 31 31 30 31 31 32 32 32 33 33 34 34 35 35 36 37

GEFSGL_500_meanwind_078.txt.gz
Wind_Speed
32 33 34 35 35 36 36 36 37 37 37 37 39 40 41 41 41 41 41 42 42 42 42 42 43 44 44 46 46 47 47 47 47 46 47 46 46 46 45 44 44 42 41
35 36 37 38 39 39 39 39 39 40 40 40 41 41 42 43 43 43 43 43 43 43 43 44 45 45 46 46 46 46 45 45 45 44 44 45 45 44 44 43 41 40 39
37 38 39 40 40 41 41 41 42 42 43 44 44 44 45 45 45 45 45 45 45 45 45 45 45 45 45 45 44 44 43 43 43 43 43 43 43 42 42 41 40 38 37
40 41 43 43 44 44 44 44 45 45 46 47 46 47 47 47 47 47 47 47 46 46 45 45 44 43 43 43 43 42 42 42 42 42 42 42 41 41 40 39 38 36 35
43 44 45 46 46 47 47 47 48 48 48 49 48 48 48 48 48 48 47 47 46 45 45 44 44 43 43 43 42 41 41 42 41 41 40 40 39 38 38 37 35 34 33
47 48 49 49 50 50 51 51 51 51 50 50 50 50 50 50 50 49 48 48 47 46 45 44 44 43 43 42 42 41 41 41 40 40 39 38 37 37 35 34 33 32 31
50 51 52 52 53 53 53 53 53 53 53 52 52 51 51 51 50 50 49 48 47 46 45 44 43 42 42 41 41 41 40 39 39 38 37 36 35 34 33 32 30 29 29
52 53 54 55 55 55 55 54 54 54 54 53 53 52 51 50 49 49 48 47 46 45 44 44 43 42 41 41 40 39 39 38 37 36 35 34 33 32 31 30 29 29 28
53 54 55 55 56 56 56 55 55 54 53 53 52 51 51 50 49 48 48 47 45 44 44 43 42 41 41 40 39 38 38 36 35 34 34 33 31 30 29 28 28 27 27
53 54 54 54 54 55 55 55 55 54 52 52 51 50 50 49 49 48 47 46 45 44 43 42 41 41 40 39 38 37 36 35 34 33 32 31 30 29 28 27 27 26 25
55 55 55 55 55 55 54 54 54 53 52 51 50 50 49 48 48 47 47 46 44 43 42 42 41 40 39 38 37 36 35 34 33 32 30 29 28 28 27 27 26 25 25
57 57 57 57 56 56 55 54 53 52 51 50 50 49 48 47 46 46 46 45 44 43 42 41 40 39 38 37 36 34 33 32 31 30 29 28 28 27 26 26 25 25 24
58 59 59 58 58 57 56 55 54 53 52 50 49 49 49 48 47 46 45 45 45 43 42 41 40 38 37 36 35 34 32 31 30 29 28 28 27 27 26 26 26 25 24
61 61 60 60 59 58 57 56 55 54 54 53 50 49 48 48 47 46 46 45 44 43 42 41 40 38 37 36 35 33 32 31 30 29 28 27 27 26 26 25 25 25 25
62 61 60 59 59 57 57 56 55 54 53 52 51 51 50 48 47 46 46 45 44 43 42 41 39 38 37 35 34 33 32 31 30 29 28 27 27 26 26 25 25 25 25
61 60 59 58 57 55 54 53 52 51 51 51 50 50 49 48 47 46 46 45 44 42 41 40 39 38 37 36 34 33 32 31 30 29 28 27 27 26 25 25 25 25 26
59 58 57 56 54 53 51 50 50 50 50 49 49 49 48 47 47 46 46 46 45 44 42 40 39 38 37 36 35 33 32 31 30 29 28 28 27 26 26 26 26 26 26
56 55 53 52 51 50 49 48 48 48 47 48 48 47 47 46 46 45 45 45 44 43 41 40 39 38 37 36 35 33 32 31 30 30 29 28 28 27 27 27 27 27 27
51 50 49 48 47 46 46 46 45 46 46 46 47 47 46 46 45 45 45 44 43 42 41 40 38 37 36 35 34 33 32 31 31 31 30 29 29 29 28 28 28 28 28
47 46 44 43 41 41 41 41 42 43 43 44 45 45 45 45 45 44 44 44 43 42 41 39 38 37 36 35 34 33 33 32 32 31 30 30 29 29 29 29 29 29 29
43 41 40 38 36 35 35 36 38 40 42 43 44 44 45 45 44 43 42 42 42 41 40 39 39 38 37 36 35 33 32 32 32 31 30 30 30 29 29 29 29 29 30
40 37 35 33 32 32 31 33 34 37 39 41 43 43 43 43 42 41 41 40 40 40 39 39 38 38 37 35 34 33 32 31 31 31 30 30 30 30 30 30 30 30 30
36 33 32 31 30 29 29 30 32 34 36 38 40 42 42 41 41 41 40 40 39 39 38 38 38 37 36 35 34 33 32 31 31 31 31 30 30 30 30 30 30 30 31
33 32 30 29 28 28 28 29 30 32 34 36 38 40 41 41 40 40 40 39 39 38 37 36 36 36 36 35 34 33 33 32 32 32 31 31 31 30 30 30 30 30 31
31 30 28 27 27 26 27 27 29 30 32 34 36 37 39 40 39 39 39 38 38 37 37 36 36 36 36 35 34 34 33 33 32 32 32 31 31 30 30 30 30 31 32
28 26 25 24 23 24 24 25 26 28 30 32 34 35 37 38 38 38 38 38 37 36 36 36 35 35 35 35 34 33 32 32 32 32 31 31 31 30 30 31 31 32 33

GEFSGL_500_meanwind_084.txt.gz
Wind_Speed
17 18 19 21 22 23 26 29 30 31 32 34 36 38 39 40 41 42 42 43 44 44 43 43 42 42 41 41 41 40 40 39 39 40 41 42 43 44 44 44 44 45 45
20 21 22 23 24 25 27 30 31 32 34 35 36 37 38 39 41 43 44 44 45 45 45 45 43 41 41 41 41 41 41 41 41 41 42 43 43 43 43 43 44 45 44
23 24 26 27 28 29 31 32 33 34 36 37 38 39 39 40 41 42 42 42 43 43 43 43 41 41 42 42 42 42 42 42 43 43 43 43 43 42 42 43 44 44 43
27 29 30 32 33 34 35 36 36 37 38 39 39 40 41 41 42 42 42 42 42 43 43 43 43 43 44 44 44 43 43 43 44 44 43 43 43 43 43 43 43 43 42
31 33 34 36 37 38 39 40 41 42 42 43 44 44 44 45 45 45 45 46 45 45 45 45 45 45 45 45 45 45 45 45 45 44 44 43 43 43 43 43 42 42 41
33 35 37 38 40 41 42 43 45 45 46 46 47 47 47 48 48 48 48 49 48 48 48 48 48 47 47 46 46 46 46 46 46 45 44 44 44 43 43 42 41 40 39
37 39 41 42 44 45 47 48 48 49 49 50 50 50 50 50 51 51 51 51 50 50 50 49 49 49 48 48 48 47 47 47 46 45 44 44 43 42 41 40 40 39 37
43 45 46 47 48 49 50 51 52 52 52 52 53 53 53 53 53 53 53 53 52 51 51 50 50 49 49 48 48 47 47 47 46 45 44 43 43 42 41 40 39 37 36
49 50 51 52 53 54 55 55 55 55 55 54 55 55 54 54 54 54 54 54 53 52 51 50 50 50 49 48 48 47 46 46 46 45 44 43 42 41 40 39 37 36 34
53 54 55 57 58 59 59 60 59 59 58 57 56 56 56 56 56 55 55 54 53 52 51 50 50 50 49 49 48 47 46 46 45 44 44 43 41 40 39 38 36 35 33
59 60 61 62 63 63 63 63 63 62 61 60 59 58 57 57 57 57 56 55 54 53 52 51 51 50 50 49 48 47 46 45 44 43 42 41 40 39 38 36 35 34 32
65 66 67 68 68 68 67 66 65 65 63 62 61 60 59 58 57 57 57 56 55 54 53 52 51 51 50 49 48 47 46 45 43 42 41 40 39 38 36 35 34 33 32
68 70 70 71 70 70 70 69 67 66 66 64 63 62 61 59 58 57 57 57 55 54 53 52 51 50 49 48 48 46 45 44 43 42 41 39 37 36 35 34 33 32 31
66 67 69 70 70 70 70 69 68 66 65 64 63 62 60 58 57 57 57 56 55 54 53 52 51 50 49 48 46 45 44 43 42 41 40 38 37 36 35 34 33 32 31
65 66 67 67 67 67 67 67 66 64 62 62 60 58 57 55 54 55 55 55 55 54 53 52 51 50 48 47 45 44 43 42 41 40 39 38 37 36 35 34 33 32 31
64 64 64 63 63 63 63 62 61 60 58 57 56 55 53 52 52 53 54 55 55 54 54 52 50 49 48 47 45 44 43 42 40 39 38 38 37 36 35 34 33 31 30
63 62 61 60 59 59 58 57 55 53 52 51 50 49 48 48 48 49 51 52 53 54 53 51 50 49 48 46 45 44 43 41 40 38 37 37 36 36 35 33 32 31 30
61 60 58 56 56 55 53 52 50 48 45 44 44 45 45 45 46 46 48 50 51 52 52 51 49 48 47 46 45 44 42 41 40 39 37 37 36 35 34 33 32 31 30
58 56 55 54 52 51 49 47 44 43 41 40 40 41 42 42 43 44 46 47 48 50 49 49 48 47 46 45 44 43 42 41 40 39 38 36 35 34 33 32 31 31 30
55 54 52 50 48 47 44 42 40 38 36 36 36 38 38 39 39 41 42 44 46 47 47 47 47 46 45 44 43 42 41 40 39 38 37 36 35 34 33 32 31 30 30
52 51 49 47 45 42 40 38 36 35 33 31 32 34 34 34 35 37 40 41 43 44 44 45 45 45 44 43 43 42 40 39 38 37 36 35 34 34 33 32 31 31 30
50 48 46 43 40 38 35 34 33 32 30 29 29 30 31 31 31 33 36 38 41 41 42 43 43 43 43 42 42 41 39 38 37 36 36 35 34 34 33 32 31 31 30
47 45 42 39 36 33 31 30 29 28 27 27 27 28 28 28 28 30 32 35 37 39 40 41 41 41 41 41 41 40 38 37 37 36 35 34 34 33 32 32 31 30 30
44 41 37 33 30 29 27 26 25 24 25 25 25 25 26 27 27 29 30 32 34 36 37 39 39 39 40 39 39 38 38 37 36 36 35 34 33 33 32 31 30 30 29
39 36 32 29 27 26 24 23 22 22 22 22 22 22 23 24 25 27 29 30 32 34 36 36 37 38 38 38 37 36 36 36 35 34 34 33 33 32 31 30 30 29 29
35 32 29 26 24 22 21 20 19 18 18 19 19 20 22 22 23 24 27 29 31 32 34 34 34 35 35 35 35 35 35 35 34 33 33 32 32 31 31 30 30 29 29

GEFSGL_500_meanwind_090.txt.gz
Wind_Speed
11 12 14 16 17 20 22 25 29 31 33 36 38 40 42 43 44 45 45 46 47 48 48 47 48 49 49 50 50 50 49 48 48 47 46 46 46 45 44 44 43 43 43
10 12 14 16 18 20 22 24 27 30 33 36 39 41 42 44 46 46 47 47 47 48 48 49 49 49 49 49 50 49 49 48 48 47 46 45 44 44 44 43 43 43 43
9 11 13 15 17 20 22 24 27 29 31 33 37 39 41 43 45 46 47 48 49 49 49 50 50 50 50 50 50 50 49 49 49 48 46 45 45 44 44 43 44 44 44
11 13 15 16 18 21 23 25 28 29 31 33 35 38 41 43 45 47 48 49 50 51 51 51 51 52 52 51 51 51 51 51 50 49 48 47 46 46 46 45 45 45 45
16 18 20 22 24 26 28 30 32 33 35 37 38 40 42 44 45 47 48 49 50 51 52 52 52 53 54 54 54 53 53 52 52 51 49 48 48 47 46 46 46 45 44
23 24 26 28 30 32 34 36 38 39 41 42 43 45 46 47 47 48 50 51 52 53 53 53 53 54 54 54 54 54 53 53 52 51 50 50 49 49 48 46 46 46 45
28 30 32 33 35 37 39 41 42 44 46 47 49 50 51 52 52 52 53 54 55 55 56 55 55 55 54 54 54 54 54 55 54 53 52 50 50 49 48 47 47 46 45
33 35 38 40 42 44 45 47 49 50 52 53 54 55 55 56 57 57 57 57 58 58 59 58 58 58 58 57 57 56 56 55 54 54 53 52 50 49 48 48 47 46 45
39 41 44 46 48 50 52 54 55 57 58 60 60 60 60 60 61 62 62 62 61 61 61 61 62 61 60 61 60 58 57 55 55 54 53 52 50 49 49 48 47 45 44
45 47 50 52 55 57 59 61 62 64 65 65 65 66 65 65 65 66 65 65 65 64 64 63 63 63 63 62 61 60 59 57 56 55 53 52 51 50 49 47 46 45 44
50 53 56 58 60 62 64 65 67 67 68 68 68 68 69 69 69 69 69 68 67 67 66 64 64 64 64 63 62 61 60 59 58 56 54 53 51 50 49 47 46 44 42
55 57 59 61 64 66 67 68 69 69 70 70 70 70 71 71 70 69 69 69 68 67 66 65 64 65 65 64 63 62 61 60 59 57 55 53 52 51 49 47 45 43 41
58 60 61 63 65 66 68 69 70 71 71 71 71 71 70 70 69 69 68 67 66 65 65 65 65 65 65 65 64 63 62 61 59 57 55 54 52 51 49 46 44 43 40
60 62 63 63 64 65 66 68 68 69 70 71 71 70 69 67 66 65 63 63 63 62 62 62 63 64 65 65 64 63 63 61 59 57 55 53 52 50 48 45 43 42 40
62 63 63 63 64 64 65 66 67 67 69 68 67 67 65 62 61 61 60 59 59 59 59 60 60 61 62 63 63 63 62 61 59 56 54 51 50 48 46 44 42 41 39
63 63 63 63 64 64 64 64 65 65 64 64 62 61 59 57 55 55 55 56 56 57 58 58 58 58 59 60 61 61 61 59 57 55 52 50 49 47 45 43 42 40 39
63 63 63 64 64 63 63 62 60 59 59 58 56 54 52 51 50 49 50 51 52 54 55 54 55 55 55 56 57 57 57 57 55 54 52 50 47 46 45 43 41 40 39
64 64 64 63 63 62 61 59 58 56 54 52 50 48 46 45 44 44 44 45 46 48 48 48 49 50 51 52 52 54 54 53 53 52 51 49 47 45 44 42 41 39 37
64 64 63 62 61 60 58 56 54 52 49 46 43 41 41 39 39 39 40 40 41 42 42 42 42 43 45 46 47 49 50 50 49 49 49 47 46 45 43 42 40 38 36
64 63 63 61 59 57 56 53 50 46 43 39 37 36 36 35 34 34 36 37 37 38 38 38 38 39 41 42 44 45 46 46 47 47 46 46 45 44 43 41 39 37 36
62 62 61 58 56 54 51 48 45 41 37 35 33 32 31 30 30 30 30 31 32 33 34 35 36 37 38 39 41 43 44 44 44 44 44 44 43 43 41 40 38 37 36
60 59 57 54 52 50 46 43 39 36 33 31 29 29 28 27 26 26 26 26 27 28 30 32 33 35 36 37 39 41 41 41 42 42 42 42 42 41 40 39 38 36 35
58 56 54 52 49 45 42 38 34 31 29 28 27 26 24 24 23 23 23 24 25 25 26 28 30 33 35 35 37 38 39 39 40 40 39 39 40 39 38 37 36 35 34
55 54 51 48 44 40 36 33 30 28 27 26 25 23 21 20 19 18 19 20 22 23 24 25 26 30 32 33 35 36 37 37 38 38 38 38 37 37 36 36 35 34 33
53 51 48 45 40 36 32 30 28 26 24 23 21 19 16 15 14 15 16 18 19 20 21 22 24 27 29 31 32 34 35 35 36 36 37 37 36 35 35 34 33 33 32
51 48 44 41 37 33 30 28 26 24 21 19 17 15 13 11 12 13 14 16 17 17 18 20 22 25 27 28 30 32 33 34 34 35 35 34 34 34 33 33 32 31 31

GEFSGL_500_meanwind_096.txt.gz
Wind_Speed
9 11 13 14 15 17 21 23 26 28 30 31 34 36 38 41 43 44 45 46 48 49 50 51 52 52 52 52 52 52 52 52 52 52 51 51 50 50 49 49 49 49 48
8 10 12 14 16 18 20 23 25 27 29 30 32 34 36 37 40 42 43 45 47 48 49 51 51 52 54 55 54 53 53 53 53 52 52 51 50 49 50 51 51 50 49
8 11 12 15 17 19 20 22 24 26 28 30 32 34 36 38 40 42 45 46 48 49 51 52 53 54 55 56 55 54 54 55 55 55 54 53 52 50 51 51 51 50 50
9 12 14 16 18 20 22 24 26 28 30 32 34 36 37 39 41 43 45 47 49 50 52 54 54 55 56 56 56 56 57 57 57 57 57 55 54 53 53 52 52 51 50
13 15 17 18 20 22 24 26 28 30 32 34 36 37 40 42 43 45 47 49 51 52 54 56 57 57 58 59 60 59 60 59 59 58 58 57 57 56 56 55 55 54 52
18 19 21 22 24 26 28 30 32 34 36 37 39 40 42 43 45 47 49 51 53 55 56 56 58 59 60 61 62 63 62 62 62 61 60 59 59 59 59 58 57 55 52
23 24 26 28 29 31 32 34 36 39 40 42 44 45 47 48 50 52 55 57 58 59 60 60 61 62 63 64 64 65 66 66 66 64 62 61 61 61 61 60 58 57 54
27 29 30 32 34 36 38 40 43 45 47 49 51 52 54 55 56 57 59 60 61 62 63 63 64 65 67 68 68 68 68 68 68 67 66 65 64 63 62 60 59 58 55
30 32 34 36 38 41 44 46 49 51 54 55 57 59 60 61 62 63 64 64 63 64 65 66 67 68 69 70 71 70 70 70 70 69 68 66 65 64 63 61 60 58 55
35 36 39 41 43 46 48 51 54 56 59 61 63 64 66 67 68 68 68 67 67 67 67 68 69 71 72 73 73 72 70 69 69 68 67 66 65 64 63 61 60 57 56
39 41 43 46 48 51 54 57 59 61 63 65 66 67 68 69 69 70 70 70 69 69 69 69 70 71 72 72 72 71 70 69 68 67 67 65 65 64 62 61 59 58 57
43 46 49 51 54 56 58 60 63 65 66 66 66 66 67 68 69 69 71 72 72 71 70 70 70 69 69 69 69 69 69 69 69 68 66 65 65 64 62 60 59 58 56
48 50 53 56 58 60 62 63 64 65 65 65 65 66 66 68 69 70 70 71 72 72 70 69 68 66 65 65 65 67 67 67 68 69 68 66 65 63 62 60 58 56 55
51 54 57 59 61 62 64 65 65 64 65 65 65 65 66 66 67 67 68 69 69 69 68 66 64 63 62 61 61 62 63 64 65 66 66 66 65 62 61 59 57 55 53
54 57 60 62 63 64 65 65 65 65 66 65 64 64 63 62 63 64 64 64 64 63 62 60 59 58 57 57 57 58 59 61 61 61 62 62 62 60 58 57 55 53 51
57 60 62 64 65 66 65 64 65 65 64 64 63 62 61 61 60 60 59 58 57 56 55 53 52 52 52 52 54 54 55 56 56 57 57 57 56 56 55 53 52 51 50
60 62 64 65 66 66 65 63 62 62 62 62 61 60 59 58 57 55 54 52 51 50 49 48 47 47 47 47 48 49 50 51 51 52 52 52 52 51 51 49 48 47 46
62 63 64 65 65 64 63 62 61 59 58 57 58 57 56 54 53 50 47 45 43 43 42 42 41 41 41 41 42 43 44 46 46 48 48 48 47 47 47 46 46 45 43
62 63 63 63 63 62 61 60 58 57 56 54 53 52 52 50 48 45 42 40 38 37 36 36 36 36 36 36 37 38 39 40 41 42 43 44 45 46 45 44 44 43 42
62 62 62 61 61 60 59 57 55 54 53 52 50 48 46 45 43 41 39 36 34 32 31 30 31 31 32 33 33 34 35 36 37 38 40 41 41 43 43 43 42 41 41
61 61 60 59 59 58 56 54 53 52 51 49 47 45 43 41 39 37 34 32 30 29 28 27 26 27 28 30 30 31 32 34 34 36 37 38 39 40 41 42 42 41 40
60 59 58 57 56 55 53 52 51 50 48 46 44 42 40 38 35 32 30 27 26 26 25 24 24 24 25 26 27 28 29 31 33 34 35 36 37 38 39 40 40 40 40
58 57 56 55 54 53 52 51 49 48 46 44 42 39 37 34 32 28 25 23 22 21 21 21 21 22 22 23 24 24 25 27 30 32 34 35 36 37 37 38 39 39 39
56 55 54 53 52 51 50 48 46 45 43 41 39 36 34 32 29 25 21 19 18 17 17 17 18 18 19 19 21 22 23 25 28 30 32 34 35 36 37 37 37 38 38
54 54 52 51 50 48 47 45 43 42 40 38 36 33 30 27 24 20 18 16 14 13 13 13 14 14 16 17 19 21 23 24 26 29 31 32 33 35 36 37 37 36 36
52 52 50 49 47 45 44 42 40 38 36 35 33 30 26 23 21 18 15 13 10 9 8 9 10 12 13 15 17 19 22 24 25 27 28 29 31 32 33 35 35 35 35

GEFSGL_500_meanwind_102.txt.gz
Wind_Speed
4 6 8 10 13 16 19 21 23 25 28 31 32 33 35 36 38 41 43 45 46 48 50 51 53 53 53 54 54 55 55 56 55 54 54 53 53 53 53 52 51 50 48
5 6 8 9 11 13 16 18 20 23 26 28 30 32 34 37 39 41 43 44 45 47 49 50 51 54 55 55 56 57 56 56 57 57 56 56 56 56 56 55 54 52 51
8 9 10 11 13 15 17 19 21 23 26 28 31 33 35 37 38 40 41 43 46 48 50 52 53 55 55 56 57 57 57 58 59 59 59 59 59 59 58 57 56 54 53
10 12 13 14 16 18 20 22 24 26 29 30 32 34 35 38 39 41 43 46 47 49 50 51 53 56 57 58 59 59 59 60 61 62 61 60 60 60 60 59 58 56 54
13 14 16 17 19 21 24 26 27 29 31 33 34 36 38 40 42 44 45 47 49 50 52 53 55 56 58 60 61 62 63 63 64 64 64 64 63 63 61 59 58 58 57
16 17 19 21 23 25 26 27 29 30 32 34 36 38 41 43 45 46 47 49 51 53 55 55 56 58 59 61 63 64 66 66 66 66 66 66 65 64 61 61 60 60 59
19 21 23 24 26 28 29 31 32 34 36 38 40 41 43 45 47 49 51 52 54 56 58 59 60 62 63 64 65 67 67 68 69 70 69 67 66 64 64 63 63 62 61
23 25 26 28 30 31 32 34 36 38 40 42 44 46 48 50 52 54 56 57 59 60 62 63 64 65 67 68 69 70 70 70 71 72 71 70 68 67 66 66 66 65 64
27 29 31 32 34 35 36 38 40 42 44 46 48 50 53 55 57 58 60 62 63 64 66 67 68 68 69 71 71 72 72 73 73 73 73 72 71 70 69 69 68 67 66
31 33 35 36 37 38 40 42 44 46 48 50 52 54 56 58 60 61 63 64 66 67 68 69 70 70 70 72 73 74 73 73 74 74 74 73 72 72 71 70 69 67 67
35 37 38 39 41 42 44 46 47 49 51 53 55 57 58 59 61 63 65 66 67 68 69 70 71 72 71 72 73 72 72 73 74 74 74 74 73 72 71 70 69 67 65
39 41 42 43 45 46 48 49 51 53 54 56 57 59 60 61 62 63 65 66 67 67 68 69 70 70 70 69 70 70 71 72 72 72 72 72 71 71 70 69 68 66 64
42 44 45 46 48 49 51 52 53 55 57 58 59 60 62 63 64 64 65 66 66 66 66 66 67 67 66 65 65 67 67 68 68 68 68 68 68 68 68 68 67 64 62
45 46 47 48 50 51 52 54 55 57 59 60 61 62 63 63 63 63 63 63 63 63 62 62 62 63 63 61 61 62 63 63 64 64 63 63 63 63 63 63 63 63 62
47 48 49 51 52 53 55 56 58 60 61 62 63 63 63 62 61 61 60 59 58 58 58 58 57 57 58 58 57 57 57 57 57 58 57 56 55 55 56 57 58 59 59
48 50 51 52 53 55 56 58 59 61 62 64 63 62 61 60 58 56 55 55 54 54 54 53 52 51 52 52 52 51 51 50 50 50 50 49 49 49 49 50 52 53 53
50 51 52 53 54 55 57 58 58 60 62 62 61 59 58 56 55 53 52 52 52 52 50 49 48 47 47 47 46 45 44 44 43 42 43 43 42 43 44 45 45 46 48
51 52 53 54 55 56 57 58 59 59 59 58 58 56 55 54 53 51 51 50 50 49 47 45 44 42 42 41 40 38 38 37 37 36 36 37 38 39 40 40 42 43 44
52 52 53 55 56 56 57 58 58 58 57 56 55 53 52 52 51 50 49 48 47 45 43 40 39 37 36 35 34 33 32 32 32 32 33 33 35 36 37 38 40 43 43
52 53 54 55 56 56 57 57 57 56 55 54 52 51 49 49 49 48 46 44 42 40 38 36 33 32 31 30 29 29 28 27 27 29 30 30 30 33 35 37 39 42 43
52 53 54 55 55 56 56 55 54 53 52 51 50 49 48 47 46 44 42 39 38 36 33 31 28 26 25 24 24 24 24 25 24 25 28 29 29 30 33 35 38 40 42
53 53 54 54 54 54 53 53 51 50 49 49 48 47 46 44 42 40 38 36 34 32 29 26 23 21 20 19 20 21 22 22 23 23 25 27 28 29 31 34 35 38 40
52 52 52 52 52 51 51 50 49 48 47 47 46 43 41 40 38 37 34 32 30 28 26 23 19 17 16 16 16 17 19 20 21 21 22 25 27 28 29 33 35 36 38
51 51 50 50 50 50 49 48 46 46 45 44 42 40 38 36 34 33 31 29 27 25 22 19 16 14 12 12 13 14 16 18 19 20 20 22 25 28 29 31 34 35 37
49 49 48 48 49 48 46 45 44 43 42 41 39 37 35 33 31 30 28 26 24 21 19 16 14 11 9 8 9 11 14 16 17 18 20 21 23 26 28 30 33 34 36
47 47 47 47 47 46 44 43 42 41 39 38 36 34 32 30 28 27 25 23 21 19 16 14 12 9 6 5 6 8 11 13 16 18 19 21 22 24 27 29 31 33 35

GEFSGL_500_meanwind_108.txt.gz
Wind_Speed
12 11 11 12 13 15 16 17 19 21 22 23 25 26 28 30 32 33 35 37 40 43 45 46 47 48 51 52 52 53 54 54 55 54 54 53 52 52 52 53 53 51 50
12 11 11 12 14 15 16 18 19 21 22 23 25 27 29 30 32 33 35 36 38 40 42 44 44 45 48 49 51 52 54 55 56 54 54 54 54 53 54 55 55 54 54
13 13 12 13 14 15 16 18 20 22 23 25 26 28 29 31 33 34 35 36 38 39 40 42 45 46 47 49 51 52 53 55 56 57 56 56 57 57 57 56 57 57 57
15 15 14 15 15 16 18 19 21 22 24 26 28 29 31 32 33 34 35 36 38 40 42 44 45 47 49 50 51 53 54 56 57 59 59 59 59 60 60 60 60 61 60
17 17 17 17 18 18 20 21 22 23 25 26 28 30 31 33 35 36 38 39 41 42 43 45 47 49 51 53 54 54 56 57 58 58 60 60 60 61 62 62 63 63 63
19 19 19 19 20 21 22 23 24 26 27 29 31 32 33 35 36 38 40 41 43 44 46 47 49 51 53 55 57 58 58 59 59 60 60 61 62 63 63 63 63 64 65
21 21 21 22 23 24 25 27 28 29 31 33 35 36 37 38 40 42 43 44 46 48 49 51 52 54 55 57 58 60 61 62 63 63 64 64 65 66 67 67 67 66 66
22 23 23 24 25 27 29 30 32 34 36 38 39 40 41 42 43 45 47 48 50 51 53 55 56 57 59 60 61 62 63 64 65 66 66 66 67 68 70 70 70 70 69
24 25 27 28 29 31 32 34 36 37 39 40 41 42 43 45 46 48 50 51 52 54 56 58 59 60 60 62 63 63 64 65 66 67 67 67 68 69 70 71 72 72 72
28 29 30 31 33 34 36 37 38 40 41 42 43 44 45 47 49 51 52 54 56 57 59 60 62 63 63 63 65 65 66 66 67 68 69 69 68 69 70 71 72 72 72
31 32 33 35 36 37 38 39 41 42 43 44 46 47 49 50 52 54 56 58 59 60 61 61 62 63 64 64 65 66 67 67 67 67 68 69 69 70 70 70 70 71 71
34 35 36 37 38 39 41 42 44 45 46 47 48 50 51 53 55 56 58 60 61 62 62 62 62 63 63 63 63 63 64 65 65 65 66 67 68 68 68 68 68 68 68
36 37 38 39 40 42 43 44 46 47 48 49 50 51 53 55 57 59 60 61 62 62 62 61 61 61 61 61 60 60 61 61 62 62 63 64 65 65 65 66 66 65 64
37 38 39 41 42 44 45 47 48 49 50 51 52 54 55 57 58 59 59 59 58 58 58 58 58 58 58 58 58 58 58 58 58 58 59 59 60 60 61 61 62 62 61
39 40 42 43 44 46 47 48 50 51 52 53 54 55 56 57 57 57 56 56 56 56 55 54 54 54 54 54 54 54 53 53 53 53 54 54 54 54 55 56 57 57 56
41 42 43 44 46 47 48 49 50 52 53 54 55 56 57 57 56 56 56 56 55 55 54 53 52 52 51 50 49 48 47 47 46 46 46 47 47 47 48 48 50 50 50
43 44 45 46 47 48 49 49 50 52 53 54 56 56 57 56 56 55 54 54 53 53 51 50 49 48 47 46 44 43 43 42 41 40 40 39 40 41 41 42 43 44 45
44 45 46 47 48 49 49 50 51 52 53 54 55 56 56 55 54 53 52 51 50 49 48 47 46 45 44 42 40 39 38 37 37 36 35 34 33 33 34 34 36 38 40
45 46 47 48 49 49 50 51 51 52 53 53 53 54 54 53 51 51 50 48 47 46 45 44 43 42 40 38 36 35 34 33 32 31 30 29 28 27 28 28 30 32 35
46 47 47 48 49 50 50 50 51 51 51 51 52 52 52 50 49 48 48 46 45 45 43 42 40 37 36 34 32 32 31 29 27 25 24 23 23 23 23 24 25 27 30
46 47 47 48 49 49 49 50 49 50 50 50 51 51 50 49 48 46 45 44 43 42 40 39 37 34 33 31 30 29 27 25 23 20 19 19 19 20 20 21 22 23 25
46 46 47 48 48 48 48 48 48 48 49 50 50 50 49 48 46 45 43 42 41 40 38 36 34 32 30 29 27 26 23 21 18 16 14 13 14 15 16 17 18 20 23
45 46 47 47 47 47 48 48 47 48 48 49 49 48 47 46 44 42 41 39 38 37 35 33 31 29 28 26 25 22 19 16 13 11 10 10 10 11 12 13 15 17 19
45 46 46 47 47 47 47 47 47 47 47 48 47 47 46 44 42 40 39 36 35 33 31 29 28 27 25 24 22 19 15 12 10 9 9 8 8 8 9 10 13 15 17
45 45 46 46 46 46 45 45 45 46 46 46 46 45 44 41 39 37 35 33 31 30 28 26 25 24 23 21 19 15 13 10 8 8 7 7 7 7 8 9 11 14 16
44 44 45 45 45 44 43 43 44 44 44 44 44 43 41 39 37 34 32 29 28 27 25 24 23 22 21 18 16 13 11 8 6 5 5 5 6 7 8 10 11 14 16

GEFSGL_500_meanwind_114.txt.gz
Wind_Speed
18 18 18 18 20 20 20 21 22 23 24 25 26 27 28 30 31 32 33 34 36 37 38 39 40 41 43 45 47 49 51 53 54 53 54 54 56 57 57 56 56 56 56
16 16 16 17 18 19 20 21 22 22 24 25 25 27 28 29 30 31 32 34 35 37 39 40 40 42 43 44 46 48 50 52 53 53 53 54 55 57 56 56 57 57 57
15 16 17 17 18 18 19 19 20 21 22 23 24 26 27 28 31 33 34 35 37 38 40 41 42 43 44 45 46 48 49 51 52 52 53 53 54 56 57 57 57 57 58
16 16 17 18 19 19 19 20 20 21 22 23 25 26 27 29 30 32 34 36 38 39 40 41 42 43 45 46 47 48 49 50 52 54 55 55 55 56 58 59 58 58 59
17 18 19 19 20 21 21 21 22 23 24 25 26 28 29 31 32 34 36 37 39 40 42 43 44 45 46 46 48 49 50 51 53 54 55 56 57 58 59 59 59 59 60
19 19 20 20 21 22 22 23 24 25 26 27 28 30 31 32 34 35 37 38 39 41 43 44 46 47 48 49 49 51 52 53 54 55 56 57 58 59 60 60 61 61 60
21 21 21 22 22 23 25 25 26 27 28 29 31 32 33 34 35 36 37 38 40 42 44 46 48 49 50 51 53 55 55 56 57 58 58 59 59 61 62 61 61 62 61
21 22 23 24 25 26 26 27 28 29 30 31 33 34 35 36 37 38 40 41 42 44 46 48 50 51 53 54 55 56 58 59 59 60 61 61 62 62 63 64 64 63 64
24 25 26 26 27 28 28 29 30 31 33 34 35 36 37 38 39 41 42 43 45 46 48 50 52 53 55 56 57 58 59 60 61 62 62 63 63 64 65 66 67 67 66
26 27 28 29 30 30 31 32 33 34 35 37 37 38 40 41 42 43 45 46 48 49 51 52 54 56 57 58 59 60 60 60 61 61 62 62 63 63 64 66 67 68 68
28 29 31 31 32 32 33 34 35 36 37 38 40 41 42 43 45 47 48 49 50 51 52 53 55 57 58 59 59 60 60 60 60 60 61 62 62 63 63 64 66 67 67
29 30 31 32 33 34 35 36 37 38 39 40 42 43 45 46 47 48 48 49 50 51 52 54 55 56 57 58 58 58 58 58 58 58 59 59 60 61 61 62 63 64 65
31 32 33 34 34 35 36 38 39 40 41 43 44 45 47 48 48 48 48 49 50 52 53 54 55 55 56 56 56 56 56 56 56 56 56 56 57 58 58 57 58 59 59
34 34 35 35 36 37 38 40 41 43 44 45 46 47 47 47 48 48 49 50 52 53 54 54 54 54 54 53 53 53 54 54 54 53 53 52 53 53 54 54 54 55 54
36 36 37 37 38 39 41 42 43 44 45 46 46 46 46 47 48 49 50 52 53 53 54 54 53 52 52 51 51 51 51 51 51 50 49 48 48 49 50 51 52 52 52
37 38 39 39 40 41 42 43 44 45 45 46 47 47 47 48 49 51 52 53 54 54 53 52 51 50 50 49 49 49 49 49 48 46 45 45 45 46 47 48 49 49 49
39 39 40 40 41 42 43 43 44 45 46 47 47 47 48 49 50 51 52 53 53 52 51 50 49 48 48 47 46 46 45 45 44 43 42 41 42 42 42 42 43 42 42
40 40 41 41 42 42 43 43 44 44 45 47 47 48 49 50 51 52 52 52 52 51 50 48 47 46 46 45 44 43 42 41 40 39 38 38 38 38 37 36 36 36 36
40 41 41 42 42 42 43 44 44 45 46 46 47 48 49 50 51 52 51 51 50 49 48 47 46 44 43 42 41 40 39 38 37 37 36 35 35 33 31 31 30 31 32
41 41 42 42 42 43 44 44 45 45 46 46 47 48 49 49 50 50 50 49 48 46 45 44 43 42 41 40 38 37 36 35 34 33 32 31 29 27 26 26 26 26 27
41 41 42 42 43 44 44 44 44 44 45 46 46 47 48 48 48 48 47 47 45 44 43 41 40 39 38 37 36 35 34 32 30 29 28 26 24 22 22 22 21 22 22
41 41 42 43 43 44 44 43 44 44 44 45 46 46 47 47 46 46 46 44 43 41 40 39 38 36 35 34 33 31 30 28 27 26 24 22 20 19 18 17 16 16 17
41 41 42 42 42 43 43 43 43 43 44 44 44 45 45 45 44 44 43 42 40 39 38 36 35 33 32 31 30 28 27 26 24 23 21 19 17 16 14 13 12 11 11
41 41 41 42 42 42 42 41 41 42 43 43 43 43 43 43 42 42 41 40 38 36 35 33 32 30 29 28 28 26 25 23 21 20 18 16 13 12 11 10 9 9 9
40 41 42 42 42 42 41 40 40 41 41 41 41 41 41 41 41 40 39 38 35 33 32 31 29 28 27 27 26 25 23 21 18 16 14 12 10 9 8 7 6 6 6
40 41 41 41 41 40 40 39 39 39 39 39 39 39 39 39 39 39 37 34 33 31 30 29 27 26 26 25 24 23 21 18 16 13 10 8 7 7 6 4 3 3 5

GEFSGL_500_meanwind_120.txt.gz
Wind_Speed
27 26 26 26 26 27 27 28 29 29 30 31 31 31 31 32 32 33 33 34 34 36 37 38 40 42 43 44 45 46 47 47 48 48 49 51 52 53 54 55 57 57 57
24 25 25 26 26 27 27 28 29 29 29 30 31 31 31 32 32 33 33 34 35 36 37 38 40 41 43 45 46 46 47 48 48 48 48 50 51 53 54 55 55 56 57
23 23 24 25 26 27 28 29 30 30 30 30 31 32 32 32 32 33 34 35 36 36 37 39 40 41 43 44 45 46 47 48 49 49 50 50 51 51 52 53 55 56 58
23 23 24 25 26 28 28 29 30 30 30 31 31 31 31 32 32 33 34 34 36 37 38 38 39 41 42 43 45 46 47 48 49 50 50 51 52 52 53 54 55 56 58
23 24 25 26 27 28 29 29 29 29 30 31 31 31 32 32 33 34 35 36 37 38 38 39 41 41 42 43 44 46 47 48 50 51 52 53 54 54 55 55 56 57 58
23 24 25 26 27 28 29 29 30 30 31 31 31 32 33 34 34 35 36 37 37 38 39 40 41 42 43 44 45 47 48 49 51 53 54 55 56 57 57 58 58 58 59
24 25 27 28 28 29 30 30 31 31 32 32 33 34 35 35 36 36 37 38 39 40 41 42 42 43 44 45 46 47 49 50 52 53 55 56 57 58 59 59 60 60 60
26 27 28 29 30 31 31 31 32 32 32 33 34 35 36 36 37 38 39 40 41 42 43 43 44 45 45 46 48 49 51 53 54 55 56 57 58 59 60 61 62 62 62
29 29 30 31 31 31 32 32 32 33 33 34 35 36 37 37 38 39 40 42 43 44 45 45 46 46 47 48 48 50 52 53 55 56 57 58 58 59 60 60 61 62 62
31 31 31 32 32 32 33 33 34 34 35 36 36 37 38 39 40 41 42 43 44 45 46 47 47 47 48 49 50 51 52 53 54 55 57 57 58 58 59 59 60 61 62
33 33 33 33 34 34 35 35 36 36 37 37 38 39 40 40 41 43 43 44 45 45 46 47 48 49 49 51 52 52 53 54 54 55 56 56 56 57 57 58 58 59 60
34 35 35 36 36 36 36 37 38 38 39 39 40 40 41 42 42 43 44 45 46 46 47 48 49 50 51 52 53 53 54 54 54 54 55 55 55 55 55 56 56 57 57
36 37 37 38 38 38 38 39 39 39 39 40 41 42 42 43 43 44 45 46 46 47 48 49 50 51 52 53 53 54 54 53 53 53 52 52 53 53 54 54 54 55 54
37 38 39 39 39 39 39 40 40 40 41 41 42 43 43 44 44 45 46 47 48 49 49 50 51 52 52 53 53 52 52 51 51 51 51 51 51 51 52 52 51 50 49
39 40 40 41 41 40 40 40 41 42 42 42 43 43 44 44 45 46 47 47 48 49 50 50 51 52 52 51 51 51 51 51 51 51 50 50 49 49 49 48 47 46 46
42 42 42 42 42 41 41 42 42 43 43 43 44 44 44 45 45 46 47 48 49 49 50 50 51 51 50 50 50 50 50 49 49 49 48 48 47 46 45 44 44 43 42
43 43 43 43 42 42 42 42 42 43 43 44 44 44 44 45 45 46 47 47 48 48 49 50 50 49 50 49 49 48 48 47 47 46 46 45 44 43 42 41 40 40 39
43 44 44 43 42 41 41 42 42 42 43 43 44 44 44 45 46 46 46 46 47 48 49 49 49 48 48 48 47 47 46 46 45 45 44 43 42 41 39 38 37 36 35
43 43 43 42 42 41 41 41 41 42 42 43 44 44 44 45 45 45 45 45 46 47 48 48 48 48 47 47 46 45 45 44 43 42 42 41 40 38 36 35 34 33 32
43 43 42 42 41 41 41 41 41 42 42 43 43 43 44 44 44 44 44 45 46 47 47 47 47 47 46 44 43 42 42 41 40 39 39 38 37 35 33 32 31 30 29
42 42 41 41 41 41 40 40 41 41 42 42 42 42 42 42 42 43 44 44 45 45 45 45 45 45 44 42 41 40 40 39 38 37 36 35 34 32 31 29 28 27 25
41 41 40 40 40 40 40 40 41 41 41 41 41 41 41 41 42 42 43 43 44 44 44 44 43 42 41 39 39 39 38 37 36 34 33 32 32 30 28 26 25 23 22
40 40 40 39 39 39 39 40 41 41 40 40 40 40 40 40 41 41 41 42 42 42 42 42 40 39 38 38 37 37 36 34 32 31 31 30 29 27 25 23 22 20 20
40 39 39 39 38 38 39 40 40 40 39 39 39 39 39 39 39 39 40 40 40 40 40 39 38 37 37 37 36 35 33 31 30 30 29 28 26 24 22 20 19 18 17
39 39 39 38 38 39 39 39 39 39 38 37 38 38 38 38 38 38 38 39 39 38 38 37 36 36 35 35 34 32 30 29 29 28 27 25 23 21 19 16 15 13 13
38 38 38 38 38 38 38 38 37 37 36 37 37 37 36 36 37 37 37 38 37 36 36 36 35 34 33 33 32 30 28 28 27 26 24 22 20 18 16 14 13 12 11

GEFSGL_500_meanwind_126.txt.gz
Wind_Speed
31 31 31 31 32 32 33 33 34 35 35 35 36 36 35 35 35 35 35 35 35 36 37 37 38 38 39 40 40 41 42 43 43 44 46 47 48 48 49 50 51 53 53
28 29 29 30 30 31 31 32 33 34 34 35 35 35 35 36 36 36 36 36 36 36 37 37 38 39 40 40 40 41 42 43 44 45 46 47 47 48 49 50 51 52 53
26 27 28 28 29 29 30 31 32 32 33 33 34 35 36 36 36 36 36 37 37 37 37 38 38 39 39 40 41 41 41 42 43 44 45 46 46 47 48 49 50 51 51
25 26 27 27 28 29 30 31 31 32 32 33 35 35 36 36 36 36 36 37 37 38 38 38 38 38 38 39 40 41 41 42 43 44 45 46 47 47 47 48 48 49 50
25 26 26 27 28 29 30 31 32 33 34 35 36 36 36 36 37 37 37 38 38 39 39 39 39 39 39 39 39 40 41 42 43 45 46 47 48 48 48 49 49 50 51
25 26 27 28 28 29 30 31 32 34 35 36 36 37 37 37 37 38 38 38 38 38 39 39 40 40 41 41 41 41 42 43 44 45 46 47 48 49 50 50 50 51 52
26 27 28 29 30 31 32 33 34 34 35 36 36 36 37 37 37 37 38 38 38 39 39 39 40 41 41 42 42 43 43 44 44 45 46 48 49 50 51 52 52 53 53
28 29 29 30 31 32 33 33 34 34 35 35 36 37 37 37 37 38 39 40 40 40 40 40 41 41 42 43 43 44 45 46 46 47 48 49 50 51 52 52 53 54 55
29 30 31 32 32 33 33 34 34 35 35 36 37 37 37 38 38 39 40 40 40 41 41 42 42 43 43 44 45 45 46 47 47 48 49 49 50 51 52 53 54 55 55
31 32 33 34 34 34 35 35 36 36 37 38 38 38 39 39 40 40 41 41 41 41 42 43 43 44 44 45 45 46 46 47 48 48 49 50 51 52 53 54 55 56 56
33 33 34 35 36 36 36 37 37 38 39 39 39 39 39 40 40 41 41 41 41 42 42 43 44 44 45 45 46 46 47 48 48 49 50 51 52 53 54 55 55 56 56
35 35 36 36 37 37 38 38 39 39 39 39 39 40 40 41 41 41 41 41 42 43 43 44 44 44 45 46 46 47 47 48 49 49 50 51 52 52 53 54 54 54 54
37 37 37 38 38 38 39 39 40 40 41 41 41 41 42 42 42 42 43 43 43 43 43 43 44 44 45 45 46 46 47 48 49 50 50 51 52 52 52 52 52 52 52
38 39 39 40 40 40 41 41 41 41 42 42 42 42 43 43 43 43 43 43 43 43 43 43 44 44 45 45 46 46 47 48 48 49 50 50 51 50 50 50 50 50 50
40 41 41 41 41 42 42 42 42 42 43 43 43 43 43 43 43 43 43 43 43 43 44 44 44 44 44 44 45 46 46 47 48 49 49 49 49 48 48 49 49 49 49
42 42 42 42 42 43 43 43 43 43 43 43 43 43 43 43 43 43 43 43 43 44 43 43 43 43 43 44 44 45 46 47 48 48 48 47 47 47 47 47 47 47 46
43 43 43 43 44 44 44 44 43 43 43 43 43 43 43 43 43 43 43 43 43 43 42 42 42 42 43 43 44 45 45 46 46 46 46 45 45 45 45 45 44 44 44
44 44 44 44 44 44 44 44 44 43 43 43 43 42 42 42 42 42 42 42 42 42 42 41 41 41 42 43 43 44 44 45 45 44 44 43 43 43 43 42 42 41 41
44 44 43 43 43 43 43 43 43 43 43 43 43 42 42 42 42 42 42 42 41 41 40 40 41 41 42 42 43 43 43 43 43 42 41 42 42 41 41 40 39 38 37
43 43 43 43 43 43 42 42 42 42 42 42 42 42 42 42 42 42 41 40 39 39 39 40 40 40 41 41 41 42 42 42 41 40 40 40 40 39 38 37 36 35 34
43 42 42 42 42 41 41 41 41 41 41 41 41 41 41 40 40 40 39 38 38 38 38 39 39 40 40 40 40 40 40 40 39 39 39 38 38 37 36 35 34 32 31
42 41 41 41 41 41 40 40 39 39 39 39 39 39 39 39 39 38 38 37 37 37 37 38 38 39 39 39 39 39 38 38 38 37 37 37 36 36 34 33 31 30 29
41 41 40 40 40 40 40 39 39 38 38 38 38 38 37 37 37 37 37 37 36 37 37 37 38 38 38 38 37 37 37 36 36 36 35 35 34 33 32 31 29 28 26
40 40 40 39 39 39 39 39 38 37 37 37 36 36 36 36 36 36 36 36 36 36 36 37 37 37 36 36 36 35 35 34 34 34 33 32 31 31 30 28 27 25 24
39 39 38 38 38 38 38 38 37 36 36 36 36 36 36 36 36 36 36 36 36 35 35 35 35 35 34 34 34 33 33 33 33 32 31 30 29 28 27 26 24 23 21
38 37 37 37 37 37 37 37 36 36 35 35 35 35 35 35 35 35 34 34 34 34 34 33 33 33 33 32 32 31 31 31 30 29 29 28 27 26 24 23 21 21 20

GEFSGL_500_meanwind_132.txt.gz
Wind_Speed
35 36 37 38 38 38 38 38 38 38 38 38 37 37 37 38 38 39 39 39 39 39 39 39 39 40 40 41 41 42 42 42 43 42 43 43 43 42 41 41 41 42 42
34 35 35 36 36 36 36 36 36 37 37 37 37 38 38 39 39 39 39 39 39 40 40 41 41 41 42 42 42 42 42 42 43 43 43 43 42 41 41 41 41 41 42
33 33 34 35 35 35 34 34 35 35 36 36 37 37 38 38 38 39 39 39 39 40 40 41 42 42 42 42 42 42 42 43 43 42 42 42 41 41 41 41 41 41 42
33 34 35 35 35 35 34 35 34 35 35 36 37 37 37 38 39 39 40 40 40 41 41 41 42 42 42 42 42 42 43 43 43 42 42 42 42 42 42 42 42 42 43
34 34 35 35 35 35 35 35 35 35 36 36 37 37 38 38 39 40 40 41 41 41 41 41 42 42 42 42 42 42 42 42 42 42 42 42 42 42 42 43 44 45 46
34 34 35 35 35 35 35 36 36 37 37 38 38 38 38 39 39 40 41 41 42 42 42 42 43 43 43 43 43 43 43 42 42 42 42 43 43 43 44 45 46 46 47
34 34 35 35 35 35 35 36 37 37 38 38 38 38 39 39 40 40 41 42 42 42 42 42 42 43 43 44 44 44 43 43 43 43 43 43 44 45 46 47 48 48 49
33 34 34 34 35 35 36 36 37 38 38 38 39 39 39 40 41 41 42 42 42 42 43 43 43 43 43 44 44 43 43 43 44 44 44 44 45 46 47 48 49 49 50
34 34 35 35 35 36 36 37 37 38 39 39 39 40 40 41 42 42 42 42 43 43 43 43 43 43 44 44 44 43 43 44 44 44 44 45 46 47 48 49 49 49 50
35 35 36 36 36 37 38 38 39 40 40 40 40 41 41 42 42 43 43 43 43 43 43 43 44 44 44 44 44 44 43 43 44 44 45 46 46 47 48 49 49 50 50
36 37 37 38 38 39 40 40 41 42 42 42 42 42 43 43 43 43 44 44 44 44 43 43 44 44 44 43 43 43 43 43 44 44 45 46 47 48 48 49 49 50 50
38 38 39 39 40 41 41 42 42 43 43 42 42 43 43 44 44 45 45 45 44 44 44 43 43 43 43 43 43 43 44 44 44 45 45 46 47 47 47 48 48 48 48
40 40 41 41 42 42 43 43 43 43 43 43 43 44 44 44 45 46 46 45 44 44 44 44 43 42 43 43 43 43 44 45 45 45 45 46 46 46 46 46 46 46 46
41 42 42 43 43 43 43 43 43 43 43 44 44 44 44 45 45 45 45 45 45 44 43 43 42 43 43 43 43 43 44 45 45 45 45 45 45 45 45 45 45 45 45
43 43 44 44 44 44 43 43 43 43 43 44 44 44 44 44 44 45 45 44 43 43 42 42 42 42 42 42 43 44 44 44 44 44 44 44 44 44 44 44 44 44 44
44 44 44 45 45 45 44 44 44 44 43 44 44 44 44 44 44 44 43 43 43 42 42 42 42 42 42 42 43 43 43 43 42 43 43 44 43 43 43 44 44 44 44
45 45 45 45 45 45 45 45 45 44 44 44 44 44 43 43 43 43 42 42 42 42 42 42 42 42 42 42 42 42 42 42 42 42 42 42 42 42 42 43 44 44 44
46 46 46 46 46 46 46 46 46 45 44 43 43 43 43 43 42 42 41 41 41 41 41 42 42 41 41 41 41 41 41 41 41 41 41 41 41 42 42 43 44 44 43
46 47 47 47 47 46 46 46 45 44 44 43 42 42 42 42 42 42 41 41 41 41 41 41 41 41 40 40 40 40 40 41 41 41 40 40 41 41 42 43 43 43 42
47 47 47 47 46 46 45 44 44 43 42 42 41 41 41 41 41 41 41 41 41 41 40 40 40 39 39 39 39 39 39 39 39 39 39 39 39 40 41 41 41 41 39
46 46 46 45 45 44 44 43 42 42 41 41 41 41 40 40 40 40 40 40 40 39 38 38 38 38 38 38 38 38 38 38 38 38 38 38 39 39 40 40 40 39 37
46 45 44 44 43 43 43 42 41 40 40 40 40 40 40 40 39 39 39 38 38 37 37 37 37 37 37 38 38 38 38 37 37 37 37 37 38 39 39 38 37 36 36
44 43 43 42 42 41 40 40 39 39 39 39 39 39 38 38 38 37 37 36 36 36 36 36 36 37 37 37 36 36 36 35 35 35 35 36 37 37 36 36 35 35 34
43 42 41 40 40 40 39 38 38 38 37 37 37 37 36 36 35 35 35 35 35 35 36 35 35 35 35 35 34 34 33 33 33 33 34 34 35 35 34 34 33 32 31
42 41 40 39 38 38 37 36 36 35 35 35 35 34 34 34 34 34 34 34 34 34 34 34 33 34 33 32 31 31 31 31 32 32 33 33 33 33 33 32 31 30 28
40 39 38 37 37 37 36 35 35 34 34 34 33 33 32 33 33 33 33 33 33 33 32 32 32 32 31 30 30 31 31 30 30 31 32 32 32 31 31 30 28 27 26

GEFSGL_500_meanwind_138.txt.gz
Wind_Speed
35 35 36 37 37 38 38 39 39 40 40 40 40 40 40 41 41 40 41 41 41 42 42 42 42 42 43 43 44 44 44 44 44 43 43 44 44 45 45 45 46 45 46
35 35 37 38 38 38 38 38 38 39 39 40 40 40 41 40 40 40 40 41 41 41 42 42 42 43 44 44 44 44 45 45 45 44 45 45 46 46 46 46 46 45 45
35 36 37 37 38 38 38 38 38 39 39 40 41 41 41 41 41 41 42 42 42 42 42 43 43 44 44 45 45 45 46 46 46 46 45 46 46 46 46 46 45 44 43
35 36 36 37 38 38 39 39 39 40 41 41 42 41 41 42 42 43 43 42 43 43 43 43 44 44 45 45 45 45 46 46 46 46 46 46 46 46 45 45 44 43 43
35 36 36 37 37 39 40 40 41 41 42 42 41 41 42 42 42 43 42 43 43 44 43 44 44 44 45 45 45 46 46 46 46 46 47 46 46 45 45 44 44 44 44
35 36 36 37 38 39 40 41 41 42 42 42 42 42 42 42 42 43 43 43 44 44 44 44 45 45 45 45 46 46 47 47 47 47 47 47 46 46 46 45 45 45 44
37 37 38 38 39 40 40 41 41 42 42 42 42 43 43 43 44 44 44 44 45 45 45 46 46 46 46 46 47 47 47 47 47 47 47 47 46 46 46 46 46 45 45
38 39 39 40 40 41 41 41 42 42 42 42 42 42 43 43 44 44 45 45 45 46 46 46 46 46 46 47 47 47 47 47 47 47 47 47 47 47 46 46 46 46 46
40 40 41 41 41 42 41 41 41 41 41 41 42 42 43 43 44 45 46 46 46 46 46 46 45 46 46 46 47 47 47 47 47 47 47 47 47 47 47 47 46 46 46
41 42 42 42 42 42 41 41 41 41 42 42 43 43 43 44 45 46 46 46 46 46 46 45 46 46 46 47 47 47 47 47 46 46 46 46 46 46 46 45 46 46 46
42 42 42 42 42 42 42 42 42 42 43 43 44 44 45 45 46 46 46 46 46 46 45 45 46 46 46 47 46 46 46 46 46 45 45 45 45 45 45 45 46 46 47
41 41 41 41 42 42 42 42 43 44 44 44 45 45 45 46 46 47 47 46 46 46 46 46 46 47 47 47 46 46 45 45 45 44 45 45 45 45 45 46 46 46 46
42 42 42 42 42 42 42 43 43 44 45 46 47 46 46 47 47 47 47 46 46 46 46 47 47 47 46 46 45 45 45 44 44 44 44 44 45 45 45 45 45 45 45
42 42 42 42 42 43 43 44 45 45 46 47 47 47 47 47 47 48 47 47 47 47 46 46 46 46 45 44 44 44 44 44 44 44 44 44 44 44 43 43 43 44 43
42 42 43 43 44 44 45 46 47 47 48 47 47 47 47 47 48 48 47 47 46 46 45 45 44 44 43 43 43 43 43 44 44 43 43 43 43 43 42 43 43 43 43
43 43 43 44 45 46 47 47 48 48 47 47 47 48 47 47 47 46 46 45 44 44 44 43 42 42 42 42 42 43 43 43 42 42 42 42 42 42 42 42 43 43 43
44 44 45 45 46 47 47 47 47 48 48 47 47 46 45 45 45 45 44 43 43 43 42 41 41 41 41 41 41 41 41 41 41 41 41 41 41 41 41 42 42 42 42
45 46 46 46 46 47 47 47 47 47 47 47 46 45 44 44 43 43 42 42 41 41 41 40 40 40 40 40 40 40 40 40 40 40 40 40 40 41 41 41 41 41 41
46 46 47 47 47 47 47 47 47 46 46 45 44 44 43 42 42 41 41 40 39 40 39 39 39 39 39 39 39 39 39 39 39 39 39 39 40 40 40 40 39 39 39
47 47 47 47 48 48 47 46 45 44 44 43 42 42 42 41 41 40 40 39 39 39 39 38 38 38 38 38 38 38 38 38 38 38 38 38 38 38 38 37 37 37 37
49 48 48 48 47 46 45 44 43 42 42 41 41 41 41 40 39 39 39 39 39 38 38 38 37 37 37 37 36 36 36 37 37 36 36 36 35 35 35 35 35 35 35
49 48 47 46 45 44 43 42 41 41 40 40 40 39 39 39 38 38 38 38 37 37 37 36 36 35 34 34 34 35 35 35 35 34 34 33 33 33 33 33 33 34 35
48 48 46 45 44 43 42 41 41 41 40 40 39 38 37 37 36 36 36 36 36 35 35 34 33 33 32 32 33 33 33 33 32 32 32 32 32 32 32 32 33 33 34
47 46 45 43 42 41 41 40 40 40 39 38 37 36 36 35 35 34 34 34 33 33 33 32 32 31 31 32 32 32 31 31 31 31 30 30 30 31 31 32 32 32 32
45 44 43 42 41 41 40 40 39 39 38 37 36 34 34 33 33 32 32 31 31 31 31 31 31 31 31 31 31 30 30 30 29 29 28 29 29 30 30 30 30 30 30
43 42 41 41 40 40 39 38 37 36 35 34 33 32 32 32 32 31 30 30 30 30 29 29 29 30 30 30 29 29 28 28 27 27 27 28 28 29 29 29 29 28 28

GEFSGL_500_meanwind_144.txt.gz
Wind_Speed
34 35 36 37 38 39 40 41 42 41 42 42 42 43 43 44 43 43 44 44 44 44 44 44 44 44 44 45 46 47 47 47 48 47 47 47 47 47 47 47 47 47 47
34 35 36 37 38 39 40 41 42 42 42 43 43 44 44 44 44 45 45 46 46 46 45 45 45 46 46 47 47 48 48 48 48 48 48 47 47 47 47 48 48 48 48
35 36 37 38 39 40 41 42 42 43 43 44 44 45 45 45 46 47 47 47 47 47 47 47 47 47 47 48 48 48 49 49 48 48 48 48 48 48 48 48 48 48 48
36 37 38 39 40 41 42 42 43 43 44 44 44 44 45 46 47 47 47 47 48 48 48 48 48 48 48 48 48 48 48 48 48 48 48 48 48 49 48 48 48 48 47
37 38 38 39 40 41 42 44 44 45 45 45 45 46 47 47 48 48 48 49 49 49 49 49 49 49 48 48 48 48 48 48 48 48 48 49 49 49 49 49 48 48 48
38 39 40 40 41 41 43 44 45 45 46 46 46 46 47 48 48 48 48 48 48 49 49 49 49 48 48 48 48 48 48 48 49 49 49 49 49 49 49 49 49 49 49
39 40 41 41 42 43 43 45 46 46 47 47 46 46 46 47 47 47 47 47 47 48 49 49 49 49 49 49 49 49 49 49 49 49 49 49 49 49 49 49 49 49 49
39 40 42 43 43 44 45 45 46 46 46 46 45 46 46 46 47 47 46 46 47 48 49 49 49 50 50 50 49 49 49 49 49 50 50 50 49 49 50 50 49 49 49
39 40 41 42 43 44 45 45 45 45 45 45 45 46 46 46 47 47 47 47 48 49 50 50 50 51 51 51 50 49 49 49 50 51 50 50 50 50 50 50 49 49 49
40 40 41 42 43 44 45 45 45 45 45 45 46 46 47 47 48 48 48 48 49 49 49 50 50 50 50 50 49 49 49 49 50 50 50 49 49 49 49 49 48 48 47
40 41 42 42 43 44 45 45 45 45 45 46 46 47 47 48 49 50 50 50 50 49 49 49 49 49 49 49 49 48 48 49 49 49 48 47 47 47 47 47 47 46 46
41 42 42 43 44 44 45 45 45 45 46 46 47 48 48 49 49 49 49 49 49 49 49 49 48 48 48 48 48 48 48 48 48 47 46 46 46 46 47 46 46 45 45
42 43 44 44 45 45 45 45 46 47 47 48 48 48 48 49 49 49 49 49 49 48 48 48 47 47 47 47 47 47 47 47 46 46 45 45 45 45 46 45 45 44 44
44 44 45 45 46 46 46 46 47 48 49 50 50 49 49 49 49 49 48 48 47 47 46 46 46 46 47 46 46 46 46 45 45 44 44 44 44 44 43 43 42 42 42
45 45 46 46 47 46 46 47 48 49 50 50 50 50 49 49 49 48 48 47 46 45 45 45 45 45 45 45 45 45 44 44 43 43 42 42 42 41 41 41 41 41 41
46 46 46 47 47 47 48 48 49 50 50 51 51 50 49 49 48 47 47 46 45 45 45 45 45 44 43 43 43 43 42 42 42 41 40 40 40 40 39 39 39 40 40
46 46 47 48 48 49 49 50 50 50 50 50 50 50 49 48 47 46 46 46 46 45 45 44 43 43 42 42 42 41 41 40 40 39 39 38 38 38 37 38 38 39 38
47 48 49 50 50 51 51 52 52 51 50 49 49 49 48 47 46 45 45 45 45 44 44 43 42 42 41 40 40 40 39 38 38 37 37 37 36 36 36 37 38 38 38
49 50 51 51 52 53 53 53 53 52 51 49 49 48 47 46 45 45 45 45 44 43 42 41 40 40 39 38 38 37 37 36 36 36 35 35 36 36 36 37 37 37 37
50 51 52 53 53 54 54 53 52 51 50 49 48 47 46 45 44 44 44 44 42 41 40 39 39 38 37 36 36 35 35 34 34 34 34 35 35 35 36 37 36 36 36
52 53 53 54 54 53 53 52 51 50 49 48 47 46 45 44 43 43 42 41 40 40 39 38 38 37 36 35 35 34 34 34 33 33 34 34 34 35 35 35 35 35 35
54 54 54 54 53 52 52 51 50 49 48 47 46 45 44 43 42 41 39 38 38 38 37 36 36 36 35 34 34 33 33 33 33 33 33 33 33 33 33 33 33 33 33
54 54 54 53 52 51 50 49 48 47 46 45 45 43 42 41 40 38 37 36 36 36 35 35 34 34 34 33 33 32 32 32 32 32 32 32 31 31 31 31 31 31 31
54 53 52 51 50 49 48 47 46 46 44 43 42 41 40 38 37 36 35 35 35 34 34 33 32 32 32 31 31 31 31 31 31 31 31 30 30 29 29 30 30 29 29
52 51 50 48 47 47 46 45 44 44 43 42 41 39 38 36 35 34 34 33 33 32 31 31 30 30 29 29 29 29 29 29 29 29 29 28 28 28 28 28 28 28 29
48 47 46 46 45 45 44 43 43 42 42 40 38 36 35 33 32 32 31 31 30 29 28 28 28 28 27 27 28 28 28 28 28 27 27 27 27 26 26 26 26 27 27

GEFSGL_500_meanwind_150.txt.gz
Wind_Speed
32 33 34 34 35 35 36 37 38 40 41 42 43 44 44 44 45 46 47 47 48 49 49 50 49 49 49 48 49 48 48 48 49 49 49 49 49 50 49 49 49 48 48
31 33 34 34 35 36 37 39 40 41 42 42 43 43 43 44 45 46 46 47 47 48 49 49 49 49 49 49 49 49 49 49 49 49 50 50 50 49 49 48 48 48 48
32 33 34 35 36 37 39 40 41 42 43 43 42 43 44 44 45 46 46 46 46 46 47 48 48 49 49 48 48 48 49 49 50 50 50 50 50 50 49 49 48 49 49
33 34 35 36 38 39 40 41 42 42 43 44 43 44 45 45 45 45 46 46 46 47 47 47 48 48 48 48 48 48 49 50 50 50 50 50 50 50 50 49 49 49 49
34 35 36 38 39 40 40 41 42 43 44 45 45 45 46 46 46 46 46 46 47 47 46 47 47 47 47 48 48 49 50 50 50 50 50 50 50 50 50 49 49 49 48
36 37 37 38 39 40 41 42 43 43 44 45 46 46 46 47 46 46 46 46 47 47 48 48 47 48 49 49 50 50 51 51 50 50 50 49 49 50 50 49 49 49 49
36 37 38 39 40 40 41 42 44 44 45 46 46 46 46 46 47 47 47 48 48 49 49 49 50 50 51 51 51 51 51 51 51 51 50 50 49 49 49 49 49 49 49
37 38 39 40 40 41 41 42 44 44 45 46 46 46 46 46 47 47 47 48 49 49 50 50 51 51 51 52 52 51 51 51 51 51 51 50 49 49 49 49 49 49 48
38 38 39 39 40 40 41 42 43 44 44 45 45 46 46 46 47 47 48 48 49 49 50 50 51 51 51 51 51 51 51 50 50 50 50 49 48 48 48 49 48 48 48
38 39 39 40 40 41 42 42 43 43 44 45 45 46 46 47 47 48 49 49 49 50 50 50 50 50 50 51 51 50 49 49 49 49 49 49 49 48 48 48 48 48 47
38 38 39 40 41 42 42 42 43 44 45 46 46 47 47 48 48 48 49 49 49 49 49 49 49 50 50 51 50 49 49 49 49 48 48 48 48 48 47 47 46 46 46
39 39 40 41 41 42 42 43 43 44 44 45 46 47 47 48 48 49 49 50 50 49 49 49 49 50 50 50 50 49 49 48 48 47 47 46 46 46 46 45 44 44 44
40 40 41 41 42 42 43 43 44 44 45 45 46 46 47 48 48 49 50 50 50 49 49 49 49 49 49 49 48 48 47 47 46 46 45 45 44 44 44 43 43 42 42
41 42 42 43 43 44 44 45 45 46 46 46 47 47 47 48 49 50 51 50 50 49 49 48 48 47 47 47 46 46 45 44 44 43 42 42 42 42 42 42 41 41 41
42 43 43 44 44 45 45 45 46 47 47 48 48 48 49 49 49 50 50 50 50 49 49 48 48 47 46 45 44 44 43 43 42 41 41 40 40 40 40 40 40 40 40
43 43 43 44 44 45 45 45 46 47 48 48 49 49 50 50 51 51 50 50 50 50 50 49 48 47 45 44 44 43 42 41 40 40 40 40 39 39 38 38 38 38 38
43 43 43 44 44 45 45 46 46 47 48 49 50 50 50 51 51 51 51 51 50 50 49 48 47 46 45 44 43 42 41 40 40 39 39 39 38 38 37 37 37 36 36
43 43 44 44 45 45 46 47 48 49 49 49 49 49 50 50 51 51 51 50 49 48 48 47 46 45 44 43 42 41 41 40 39 39 38 38 37 37 36 36 35 35 35
43 44 44 45 46 47 48 49 49 50 50 49 49 49 50 50 50 50 50 49 47 46 45 45 44 42 41 41 40 40 39 39 38 37 37 36 36 35 35 35 34 34 33
44 45 46 47 48 49 49 50 50 50 50 49 49 49 50 49 48 48 47 47 45 44 43 42 41 40 39 39 39 38 38 37 36 36 36 35 34 34 33 33 33 32 32
45 46 48 49 49 50 50 50 49 49 49 49 49 49 48 48 47 46 45 44 43 42 41 40 39 38 38 38 37 36 35 35 35 34 33 33 33 32 32 32 31 31 31
47 48 49 49 49 48 48 48 48 48 48 48 47 46 46 47 46 45 44 43 42 40 39 38 37 36 35 35 34 33 33 33 32 32 32 31 31 31 31 30 30 30 31
48 48 48 48 47 47 47 47 47 47 47 46 46 46 46 46 45 44 43 42 40 39 37 36 35 34 32 32 31 30 30 29 29 29 29 29 29 29 29 29 30 30 30
47 47 47 46 46 46 46 46 46 46 45 45 45 44 44 44 43 42 41 40 39 37 35 34 32 31 29 28 28 28 28 27 27 28 28 28 28 28 27 28 28 28 28
46 46 45 45 45 45 45 45 45 45 45 44 44 43 42 41 40 40 39 37 36 34 32 31 30 28 27 27 27 26 26 25 25 25 25 25 25 25 25 26 26 26 26
45 45 45 45 45 45 44 44 44 43 43 42 42 41 40 40 39 37 36 34 32 31 29 28 27 26 26 26 25 25 24 23 23 23 23 24 24 24 24 24 24 24 24

GEFSGL_500_meanwind_156.txt.gz
Wind_Speed
32 33 34 35 36 36 37 38 38 39 39 40 41 41 42 43 43 44 44 44 45 45 46 47 47 48 48 49 49 49 50 50 49 49 50 50 50 50 50 50 50 51 51
32 33 34 35 36 37 38 38 39 39 40 41 42 42 43 43 44 44 45 45 45 46 47 48 48 49 49 49 49 50 50 50 50 49 49 50 50 50 50 50 50 51 52
34 35 35 35 36 37 38 39 40 40 41 42 43 43 44 44 45 45 45 46 46 47 47 48 49 49 49 49 49 49 50 50 50 50 50 51 51 50 51 51 52 53 53
35 36 36 37 37 38 39 39 40 41 42 43 44 44 45 45 45 47 47 46 46 47 48 48 49 49 49 49 49 49 49 50 51 51 51 51 51 52 53 53 53 53 53
36 36 37 38 38 39 39 40 41 42 43 44 44 45 45 45 46 47 47 47 47 47 48 48 49 49 49 49 49 50 50 51 51 51 51 51 52 53 54 54 53 53 53
36 37 38 39 39 39 39 40 41 42 43 43 44 45 45 46 46 47 47 47 47 47 48 49 49 49 49 49 50 50 51 51 51 51 51 52 52 53 53 53 53 53 52
37 38 39 39 40 40 40 40 41 42 43 43 44 45 45 46 46 46 47 47 47 47 48 49 49 49 49 50 50 51 52 52 52 52 52 52 52 53 53 52 52 53 52
37 38 39 39 39 40 40 41 41 42 42 43 44 44 45 45 45 45 46 46 47 47 48 48 48 49 49 50 50 51 51 52 52 53 53 52 52 52 52 52 52 52 51
37 37 38 39 39 39 40 40 40 41 42 43 43 44 44 44 45 45 46 47 47 48 48 49 49 49 50 50 51 51 52 52 52 52 52 52 51 52 52 52 51 51 49
36 37 37 38 38 39 39 40 40 41 42 43 43 44 45 45 46 46 47 47 47 48 47 48 49 49 50 50 51 51 51 51 51 51 51 50 50 51 51 51 51 50 50
37 37 37 38 39 40 40 41 42 43 43 43 44 44 45 46 46 47 47 48 48 48 48 48 49 49 49 50 51 51 50 50 50 50 50 49 50 50 50 49 49 49 48
37 38 39 39 40 41 42 43 43 44 44 44 45 45 46 47 47 48 48 48 48 48 48 48 48 49 49 50 50 51 51 51 51 50 50 49 49 48 48 47 47 46 45
38 39 39 40 40 41 42 43 44 44 45 45 46 46 47 47 48 49 48 48 48 48 48 49 49 49 49 49 50 50 51 52 52 51 50 49 48 47 46 45 44 44 42
40 40 40 41 42 42 43 43 44 45 45 46 46 47 48 48 49 49 48 48 48 48 48 48 49 49 50 50 51 51 52 52 51 51 50 48 46 45 44 43 43 42 41
41 41 42 42 43 43 43 44 44 45 46 46 47 47 48 48 48 48 48 48 48 48 49 49 49 50 51 51 52 51 51 51 50 49 48 46 44 43 42 42 41 41 40
42 42 43 44 44 44 45 45 46 46 47 47 47 47 47 47 47 47 47 47 48 48 49 49 49 50 50 51 50 50 49 49 48 47 45 44 43 42 41 41 40 39 38
43 43 44 44 45 45 46 47 46 47 47 46 47 47 47 46 46 46 47 47 48 49 49 50 50 50 49 48 48 47 46 46 45 43 42 42 41 41 40 39 38 37 36
43 44 45 45 46 46 46 46 46 45 45 45 45 46 46 46 46 47 48 49 49 49 50 49 49 48 47 46 46 45 44 43 42 41 40 39 38 38 37 36 36 35 35
43 44 44 45 45 45 45 45 45 45 45 44 45 45 46 46 47 48 49 49 49 49 49 48 48 47 46 45 44 43 43 42 41 39 38 37 36 35 35 34 33 33 32
43 43 44 44 44 44 44 45 45 44 44 44 45 46 46 47 48 48 48 48 48 48 47 47 47 47 45 45 44 43 42 40 39 37 36 34 33 33 32 31 31 30 29
43 43 43 44 44 44 45 45 44 44 44 45 46 46 47 47 47 47 46 46 46 46 47 46 46 45 44 44 43 42 40 38 36 34 33 32 31 30 29 28 28 28 27
42 42 43 43 44 44 44 44 44 44 45 46 46 46 46 46 46 46 45 45 45 45 45 44 44 43 43 42 41 39 37 35 34 32 31 30 28 27 27 27 26 26 26
41 42 43 43 44 43 43 44 44 45 46 46 45 45 45 45 45 44 44 44 44 44 43 42 42 42 41 40 38 36 34 32 31 30 29 27 26 26 26 25 25 25 25
42 42 43 43 43 43 43 44 44 45 45 45 45 45 44 43 43 42 42 42 42 42 41 41 40 39 38 36 35 34 32 30 28 27 27 26 26 25 25 24 24 23 23
43 43 43 43 43 43 43 43 44 45 44 44 44 43 42 42 41 41 41 41 41 40 39 39 38 36 35 33 31 30 28 27 26 25 24 24 24 24 23 22 22 22 22
42 43 43 43 43 43 43 43 44 44 43 42 42 42 41 41 40 40 40 40 39 38 38 37 35 33 31 29 28 26 25 24 23 23 22 21 21 21 21 20 20 20 21

GEFSGL_500_meanwind_162.txt.gz
Wind_Speed
29 30 30 32 33 34 35 35 36 37 38 39 39 40 40 41 42 43 43 44 44 45 46 46 47 48 48 49 49 49 49 49 49 48 49 49 50 50 50 51 51 50 50
31 31 32 33 34 35 36 37 38 38 39 39 40 40 41 41 42 42 44 45 46 47 47 48 49 49 50 51 51 51 51 51 50 50 50 50 51 51 51 51 51 51 50
32 33 33 34 35 36 37 37 38 38 39 40 41 41 41 41 42 44 45 46 47 48 49 49 50 50 51 52 52 52 52 52 52 52 51 51 52 52 52 52 51 51 52
33 33 34 35 36 36 37 37 38 39 40 41 41 41 42 43 43 44 45 46 47 48 49 49 50 50 51 52 52 52 52 53 53 53 53 52 53 52 52 51 52 52 53
33 34 35 36 36 37 37 38 39 40 40 41 42 42 43 43 44 44 45 46 46 47 48 48 49 50 51 51 52 52 53 53 53 53 53 53 53 52 52 53 53 53 53
34 35 36 36 37 37 38 39 39 40 40 41 42 42 43 44 44 45 45 46 47 47 47 48 49 50 50 51 52 52 52 53 53 53 53 53 53 54 54 54 54 54 55
34 35 36 36 37 38 39 39 40 40 41 42 42 42 43 44 45 45 46 46 47 48 48 49 49 50 51 52 51 51 52 52 53 53 53 53 53 53 54 54 55 55 54
34 35 36 37 38 39 39 39 40 40 41 41 42 43 43 44 45 46 46 47 48 49 49 50 50 50 50 50 50 51 52 53 53 53 53 53 53 53 54 54 54 54 53
34 35 36 37 38 39 39 39 39 40 40 41 42 43 44 44 45 45 46 47 48 50 50 51 51 50 50 51 51 51 51 52 52 52 52 52 53 53 53 53 53 53 52
35 36 36 37 37 38 38 39 39 40 40 41 41 42 44 45 45 46 47 47 48 49 50 50 50 50 51 52 52 51 50 50 50 50 51 52 52 53 53 53 53 53 52
37 37 37 37 38 38 38 39 39 40 41 41 42 43 44 44 45 46 47 48 48 48 49 49 50 50 50 50 50 50 49 49 49 50 51 51 52 53 53 53 53 53 52
38 38 38 38 38 39 39 39 40 40 41 42 43 43 44 45 46 47 48 48 48 48 48 48 48 48 48 48 48 48 49 49 50 50 51 51 51 52 53 53 53 53 52
39 39 39 39 39 39 39 40 41 41 42 43 44 44 45 46 47 47 48 48 48 48 47 47 47 47 47 47 48 48 48 49 50 50 50 50 51 51 52 52 52 52 51
39 39 39 40 40 40 40 41 41 42 43 44 45 45 46 46 47 47 48 47 47 47 46 46 46 46 46 47 47 48 48 49 49 49 49 49 50 50 50 50 50 50 49
39 39 40 40 40 41 41 41 42 42 43 44 45 46 46 46 46 47 47 47 46 46 46 46 46 46 46 46 47 47 48 48 48 48 48 48 49 49 49 49 48 48 46
40 40 40 41 41 42 43 43 43 43 44 44 45 46 46 46 46 46 45 46 45 45 46 45 45 45 45 45 46 47 47 48 47 47 47 47 47 46 46 46 45 44 43
41 41 41 41 42 42 43 43 43 43 43 44 45 46 46 45 44 44 44 44 44 44 44 45 45 44 45 45 46 47 47 47 47 46 46 46 45 45 44 43 42 41 39
41 41 41 42 42 42 42 43 43 43 43 43 44 45 44 43 43 43 43 43 43 43 44 44 44 45 45 46 46 47 46 45 46 46 46 45 44 43 42 41 39 38 36
42 41 42 42 42 42 42 42 43 43 43 43 43 43 43 42 43 43 42 42 42 43 44 44 45 45 45 45 46 46 45 46 46 45 44 43 43 41 39 38 36 35 34
41 41 41 41 41 41 42 42 42 43 43 43 43 42 42 42 41 41 41 42 43 43 43 44 44 44 45 45 45 45 45 45 44 43 43 42 41 39 37 35 34 33 32
40 40 40 41 41 41 41 42 42 42 42 42 42 41 41 41 41 41 42 42 42 42 42 42 43 43 44 45 45 45 45 44 43 43 41 40 38 36 34 33 32 31 30
39 38 39 40 40 40 40 41 41 41 41 41 41 41 41 40 40 41 41 42 42 42 41 42 42 43 44 44 44 43 43 42 41 40 38 36 34 33 32 31 30 28 27
37 37 37 38 39 39 40 40 40 41 41 41 41 41 41 40 41 41 41 41 41 41 42 42 43 43 43 43 43 41 40 39 38 36 35 33 32 31 29 28 26 24 23
36 36 37 37 38 39 39 40 40 41 40 40 40 41 41 41 41 41 41 41 41 42 42 42 43 43 42 41 40 39 38 37 35 34 32 31 30 27 25 24 22 21 21
36 36 37 38 39 39 40 40 40 41 41 41 41 41 41 41 41 41 41 41 41 41 41 41 41 40 39 38 37 37 36 34 33 31 30 28 26 24 23 22 21 20 20
36 37 38 38 39 39 39 40 40 40 40 40 41 41 40 41 41 41 41 40 40 40 39 39 39 38 37 36 35 34 33 32 30 28 27 25 24 22 21 20 20 19 19

GEFSGL_500_meanwind_168.txt.gz
Wind_Speed
29 30 32 33 34 34 34 35 35 35 36 38 38 39 40 41 43 42 43 44 44 45 46 46 47 48 49 50 50 50 51 52 52 51 52 52 53 54 54 54 54 53 53
29 30 31 32 33 34 35 35 36 37 37 38 38 39 40 41 43 43 43 44 44 45 46 47 48 48 49 50 50 51 52 52 52 52 53 53 54 54 55 55 55 55 55
29 30 31 32 33 34 35 36 36 38 39 39 40 40 41 42 43 44 44 44 45 45 46 47 48 49 49 50 50 51 52 52 53 53 53 54 55 55 56 56 56 56 56
30 31 32 33 34 35 36 37 38 39 39 40 40 41 42 43 43 43 44 45 45 46 47 48 49 49 49 49 50 51 51 53 53 54 54 54 55 55 56 56 56 56 56
31 32 33 35 35 36 37 38 39 40 40 40 41 41 42 43 43 44 44 45 46 47 47 48 48 49 50 50 51 51 52 53 54 55 55 55 55 56 56 56 55 55 55
33 33 35 36 36 37 37 37 38 40 41 41 42 42 42 43 44 46 46 46 47 47 47 48 49 50 51 51 52 53 53 54 55 55 56 55 55 55 55 55 55 54 54
34 34 35 36 37 37 39 39 39 40 41 43 43 43 44 45 45 46 47 47 47 48 48 49 50 50 51 52 53 53 54 55 55 56 55 55 55 55 54 53 53 53 52
33 34 34 35 36 37 39 39 39 40 41 42 43 44 44 45 45 45 46 47 47 48 49 50 50 51 52 52 53 54 54 54 55 56 55 55 55 54 53 53 53 53 53
34 35 36 37 38 39 39 40 40 41 41 42 42 43 43 44 44 45 46 47 48 48 49 50 51 51 52 53 54 54 54 54 55 54 54 54 54 53 53 53 53 54 53
36 37 38 38 39 40 40 41 41 41 41 42 42 42 43 44 44 45 45 47 48 48 49 50 51 51 52 52 53 53 53 53 53 53 52 52 52 52 52 53 53 53 53
38 38 39 39 40 40 40 41 42 42 42 42 42 42 43 43 44 45 46 46 47 48 49 50 51 51 51 51 51 51 51 51 50 50 49 49 50 50 51 52 52 53 52
39 39 39 40 41 41 41 42 43 42 42 42 42 42 42 43 44 45 46 47 48 49 49 50 50 50 50 50 50 49 49 49 48 47 48 48 49 49 50 51 51 51 51
40 40 40 41 41 42 42 42 43 43 44 43 43 43 43 44 45 46 47 48 49 49 50 50 49 49 49 48 48 48 48 47 47 47 47 47 48 49 50 50 50 50 50
41 42 42 42 42 42 43 43 43 44 44 45 44 44 44 45 45 46 47 48 49 49 49 49 48 48 47 47 46 46 46 46 45 46 46 46 48 48 48 48 48 48 48
42 42 43 43 43 44 44 44 44 45 45 45 45 45 45 46 46 47 47 48 48 48 48 47 46 46 46 46 45 45 45 45 45 46 46 46 46 46 46 47 47 47 47
43 43 43 44 44 44 44 44 44 45 45 46 46 46 46 46 47 47 47 47 47 47 46 45 45 45 45 44 44 45 45 45 45 46 46 46 46 46 45 45 45 46 46
44 44 44 44 44 44 44 44 44 44 45 45 45 46 46 46 46 47 47 47 46 45 45 45 44 44 44 44 44 44 44 44 44 44 45 45 45 44 44 44 44 44 44
44 44 44 44 44 43 43 43 44 44 44 44 44 45 45 45 46 46 46 45 45 45 44 44 43 43 43 43 43 42 42 43 43 43 43 43 43 43 43 44 44 43 42
43 44 44 44 43 43 43 43 43 43 43 43 43 43 44 44 45 45 44 44 43 43 43 42 42 42 42 42 42 41 41 42 42 42 43 43 43 43 43 43 43 42 41
43 43 43 43 43 43 42 42 42 42 41 41 42 42 43 43 43 43 43 42 42 41 41 41 41 41 41 41 41 41 41 41 42 42 42 42 42 42 42 42 41 40 39
42 42 42 42 42 41 41 41 40 40 41 41 41 42 42 42 42 41 41 40 40 40 39 40 40 40 40 39 39 40 40 41 41 41 41 41 41 41 41 40 38 37 36
41 40 40 40 40 40 40 40 39 39 40 40 41 41 41 41 41 40 39 39 38 38 39 39 39 39 39 38 39 39 40 41 41 41 41 40 40 39 38 37 35 35 34
38 37 37 37 37 38 38 38 38 39 40 40 40 40 40 40 39 38 38 38 38 38 38 39 38 38 38 39 40 41 41 41 41 41 40 39 38 37 36 35 34 33 31
37 36 35 35 35 36 36 37 38 38 39 39 39 40 39 39 38 37 37 38 38 38 38 38 38 38 39 40 41 41 41 41 39 39 38 37 36 35 34 33 32 30 28
35 35 35 35 35 36 36 36 37 37 38 38 39 39 39 38 37 37 37 37 37 37 37 38 38 39 39 40 40 40 40 39 38 37 37 35 34 32 31 30 29 27 25
35 35 35 36 36 36 36 36 37 37 37 38 38 37 37 36 36 36 36 36 36 37 37 37 37 38 38 38 38 38 37 36 35 34 33 32 31 29 28 27 25 23 22

GEFSGL_500_meanwind_174.txt.gz
Wind_Speed
26 27 29 30 31 32 34 35 35 36 38 39 39 41 42 43 44 45 46 47 47 47 48 49 49 49 50 50 49 50 50 51 51 51 52 53 55 55 55 55 55 55 55
28 28 29 30 31 33 34 36 37 37 38 39 39 40 42 42 42 44 45 46 46 48 48 49 49 50 50 50 50 50 51 52 53 53 53 54 55 55 55 55 55 55 55
29 30 31 32 32 33 35 36 37 37 37 38 38 39 40 41 42 44 45 45 46 46 47 48 49 49 49 50 51 51 52 53 54 54 55 55 55 54 55 55 54 54 56
31 31 32 33 33 33 34 35 36 36 37 38 39 40 40 41 42 43 45 45 46 46 47 48 48 48 49 50 51 52 53 53 54 54 54 54 55 54 54 54 55 56 56
32 33 33 34 34 35 35 35 36 37 38 39 40 41 41 42 43 44 44 45 45 45 46 48 48 48 49 49 50 51 52 53 54 54 54 54 54 54 53 54 54 54 55
33 34 34 35 36 36 36 36 37 37 38 39 39 41 41 41 41 42 43 44 44 45 45 46 47 48 49 49 50 51 52 53 53 53 53 53 53 53 53 53 53 53 53
33 34 34 35 36 36 36 37 38 38 39 40 41 41 41 42 42 43 43 45 45 46 45 45 46 47 48 49 49 50 50 51 52 52 52 52 53 53 53 53 53 53 52
32 33 35 35 35 35 36 37 37 38 39 40 41 41 41 41 42 42 43 44 45 45 46 46 47 47 48 48 49 49 49 50 51 51 51 52 52 52 52 51 51 51 51
33 34 35 35 36 36 37 37 38 39 40 40 41 42 42 42 42 42 43 44 44 45 45 46 46 47 47 48 49 49 50 51 51 51 51 51 51 51 51 50 50 51 50
34 35 35 36 37 38 38 39 39 40 40 40 41 42 42 42 42 43 43 44 44 45 45 45 46 46 47 48 49 49 50 50 51 51 51 51 51 50 50 50 51 51 51
35 36 37 37 38 39 39 39 39 40 40 40 41 41 42 42 43 43 43 44 44 44 45 45 45 46 47 48 49 49 50 50 50 50 51 51 51 50 50 51 51 50 50
36 37 38 39 39 40 40 40 40 40 40 41 41 41 42 42 42 43 43 43 44 44 45 45 45 46 46 47 48 49 50 50 50 50 50 50 50 50 50 50 50 49 49
36 36 37 38 39 40 41 40 40 41 41 41 41 42 42 42 42 43 43 43 43 44 44 44 45 46 47 48 49 49 49 49 49 48 48 48 49 49 48 48 47 47 47
38 38 38 38 39 40 41 41 41 41 42 42 42 42 42 42 43 43 43 43 43 43 43 44 45 46 47 48 48 48 48 47 47 47 47 47 47 46 46 46 46 46 46
39 39 39 40 40 41 41 41 41 41 42 43 43 43 43 42 42 42 43 43 43 43 44 44 45 45 46 46 46 45 45 45 45 45 44 44 44 43 43 43 44 44 45
40 40 40 40 41 41 41 40 40 41 42 43 43 43 43 42 42 42 42 43 44 44 44 44 45 45 45 45 45 44 44 43 43 42 42 42 42 42 42 43 43 44 44
40 40 40 40 40 40 40 41 40 40 41 41 42 42 42 42 42 42 43 44 44 44 45 45 45 45 45 44 43 42 42 41 41 41 41 41 41 42 42 43 43 43 43
40 40 40 40 40 40 40 40 41 41 40 40 40 41 41 42 42 42 43 44 44 45 45 45 45 44 44 43 41 41 40 40 40 40 40 41 41 41 42 42 42 42 42
41 41 41 40 41 41 41 41 41 40 40 40 40 40 40 41 41 42 42 42 43 43 44 44 44 43 42 41 40 39 39 39 39 39 40 40 40 41 41 41 41 40 40
41 41 41 41 41 41 41 40 40 40 40 40 40 40 39 40 40 40 40 41 42 42 42 42 41 40 39 38 38 38 38 38 38 38 38 39 39 40 40 40 39 38 37
41 41 41 41 41 40 40 39 39 39 39 39 39 39 39 38 38 39 39 40 40 40 40 39 37 37 36 35 35 35 36 36 37 37 38 38 38 38 38 37 36 35 34
41 41 41 41 40 40 39 39 39 38 38 38 37 37 37 37 37 38 38 39 39 38 37 36 35 34 33 33 33 34 35 35 36 36 37 37 37 37 36 35 35 34 34
41 41 40 40 39 39 38 37 37 37 36 36 36 36 36 36 36 37 37 37 36 35 34 33 33 32 32 33 33 34 35 35 36 36 37 37 36 36 36 35 34 33 33
40 39 39 38 38 37 37 36 36 35 35 35 35 35 35 35 36 36 36 35 34 33 32 32 32 32 32 33 33 34 35 35 36 36 36 35 35 35 34 32 31 31 29
37 37 36 36 36 36 35 35 34 34 34 34 34 34 35 35 35 34 34 34 32 31 31 31 31 31 32 32 33 33 33 34 34 34 33 33 32 31 30 29 28 27 26
35 34 34 34 33 33 33 33 32 32 32 32 33 33 34 34 33 33 33 32 31 31 30 30 30 30 30 31 31 32 32 32 31 30 30 29 29 27 26 25 24 24 23

GEFSGL_500_meanwind_180.txt.gz
Wind_Speed
24 26 27 28 29 30 32 33 33 34 35 36 37 39 40 41 42 43 43 44 45 46 46 47 48 48 49 50 50 50 51 51 52 51 52 52 52 53 54 54 54 54 54
23 26 28 28 30 30 31 33 34 35 36 37 38 39 41 42 43 44 44 45 46 46 47 48 48 49 49 49 50 51 51 52 52 52 52 52 53 53 53 54 54 55 55
24 25 27 28 30 31 32 33 34 36 37 39 40 41 42 42 43 44 44 45 45 46 47 47 48 49 50 50 51 51 52 52 52 52 52 52 53 53 53 54 54 55 55
26 27 28 29 31 32 34 35 36 37 38 38 39 41 43 43 43 44 44 44 44 45 46 47 48 48 49 50 51 51 52 53 53 52 52 52 52 53 54 54 53 54 55
27 28 30 31 33 34 35 36 38 38 39 40 40 41 41 42 43 44 44 44 44 45 46 47 48 49 49 50 51 51 51 52 53 52 52 52 52 53 53 53 54 54 54
28 29 31 32 33 34 35 36 37 38 39 39 40 40 41 42 43 44 45 45 45 46 47 47 48 49 49 50 50 50 51 52 52 52 52 52 52 53 53 53 53 53 53
29 31 32 32 33 34 35 36 36 37 38 39 39 39 39 40 41 42 43 44 45 45 46 48 48 49 49 48 49 50 50 50 51 52 52 52 52 52 53 53 53 52 52
30 30 32 33 34 34 34 35 36 37 37 38 38 39 40 40 42 42 44 44 45 46 46 47 48 48 48 48 49 49 49 50 50 50 51 51 51 52 53 53 52 52 52
31 32 32 32 33 33 33 34 36 36 37 39 40 40 40 41 42 43 45 45 46 46 45 45 46 46 47 47 48 49 49 50 50 50 50 50 51 51 52 52 52 51 51
32 32 33 33 33 33 35 36 37 37 38 39 40 40 41 41 42 43 44 44 44 44 44 44 45 45 45 46 47 47 48 48 48 48 48 49 50 50 50 51 51 51 51
33 34 33 34 34 35 36 37 38 38 38 39 40 40 41 41 42 42 43 43 44 44 44 45 45 45 46 45 45 46 46 47 47 48 48 49 49 50 50 50 51 50 49
35 35 35 35 36 37 37 38 38 39 39 39 40 40 41 41 41 42 42 43 44 44 44 45 45 45 45 45 45 45 46 46 46 47 47 48 49 49 49 49 48 48 47
36 36 37 37 38 38 39 39 39 39 39 39 39 39 40 41 41 42 43 43 43 44 44 44 44 44 44 44 44 45 45 46 46 46 47 47 48 48 48 47 46 45 45
37 37 38 38 39 39 40 40 40 40 40 40 40 40 41 41 41 42 43 43 43 43 43 42 42 42 43 43 44 45 46 46 46 46 46 46 46 46 45 45 44 44 44
38 39 39 40 40 40 40 40 40 41 41 41 41 42 42 42 42 42 42 42 42 42 41 41 41 42 42 42 43 44 44 44 44 44 44 44 44 43 43 43 43 43 42
39 40 40 41 41 41 41 40 40 41 41 41 41 41 41 41 41 41 41 41 41 41 41 41 41 41 42 42 42 42 42 42 42 42 42 41 41 41 41 41 41 41 40
41 41 41 42 42 42 41 41 40 41 41 41 40 40 41 40 40 40 41 41 42 42 41 41 41 41 41 41 41 40 40 40 40 39 39 38 38 39 39 38 38 38 38
43 43 43 43 43 42 41 41 41 41 40 40 40 40 40 40 39 39 40 40 40 41 40 40 40 40 40 39 39 38 37 37 37 37 36 36 36 36 36 36 37 38 38
44 44 43 43 42 42 42 41 41 41 41 40 39 39 39 40 40 39 39 40 40 39 39 40 39 39 39 38 37 36 36 36 36 35 35 35 35 35 35 36 36 37 38
44 44 43 43 42 42 42 42 42 41 41 40 39 39 39 39 39 39 39 39 38 38 38 39 38 38 37 36 36 36 35 35 34 34 34 34 34 35 35 36 36 36 36
45 44 43 42 42 42 41 41 41 41 40 39 38 38 38 38 37 37 37 36 36 37 37 36 35 35 35 35 35 34 34 34 34 33 33 34 34 34 35 35 35 34 34
44 43 42 42 41 41 40 40 40 39 39 38 37 37 37 36 36 35 34 34 34 34 34 33 33 33 33 33 33 32 32 33 32 32 32 33 33 34 34 34 34 33 33
42 41 41 40 40 40 39 39 39 38 38 37 37 36 35 34 34 33 33 32 32 32 31 31 31 31 31 31 31 31 31 31 31 31 31 32 33 32 32 32 32 31 30
41 40 40 39 39 39 38 38 38 38 37 37 35 35 34 33 32 32 32 32 32 32 31 31 31 30 30 31 31 31 31 31 31 31 31 31 31 31 31 30 30 29 28
39 39 39 39 38 38 38 37 37 36 36 35 34 33 32 32 32 32 32 31 31 31 31 31 31 31 30 30 31 31 31 30 30 29 29 30 30 30 29 29 28 27 26
37 37 37 37 37 37 36 35 35 34 33 33 33 32 32 32 32 31 31 31 31 31 31 31 30 30 30 30 30 29 29 28 28 27 28 27 27 26 26 26 25 24 23